DW7984 Weather Reports


Display with metric or nautical units.
time (UTC)temp
F
wind
direction
speed
MPH
gust
MPH
rain 1hr
in
rain 24hr
in
rain mn
in
humidity
%
barometer
mb
20260903084301 83 79 4.0 7.0 0.00 0.00 0.00 54 1057.9
20260903084201 83 82 3.0 7.0 0.00 0.00 0.00 55 1057.9
20260903084115 83 161 3.0 6.0 0.00 0.00 0.00 56 1057.9
20260903084108 83 162 3.0 6.0 0.00 0.00 0.00 56 1057.9
20260903084057 82 162 3.0 6.0 0.00 0.00 0.00 56 1057.9
20260903084049 82 163 3.0 6.0 0.00 0.00 0.00 56 1057.9
20260903084038 82 163 3.0 6.0 0.00 0.00 0.00 56 1058.0
20260903084030 82 164 3.0 6.0 0.00 0.00 0.00 57 1058.0
20260903083752 82 165 3.0 6.0 0.00 0.00 0.00 57 1057.9
20260903083741 82 164 3.0 6.0 0.00 0.00 0.00 57 1057.9
20260903083201 82 173 3.0 6.0 0.00 0.00 0.00 54 1058.0
20260903083102 82 233 3.0 4.0 0.00 0.00 0.00 53 1057.9
20260903083047 82 233 3.0 4.0 0.00 0.00 0.00 53 1057.9
20260903083002 82 234 2.0 4.0 0.00 0.00 0.00 53 1058.0
20260903082901 82 234 2.0 4.0 0.00 0.00 0.00 55 1057.9
20260903082801 82 237 2.0 4.0 0.00 0.00 0.00 56 1057.9
20260903082701 82 241 2.0 4.0 0.00 0.00 0.00 57 1057.9
20260903082602 82 241 2.0 4.0 0.00 0.00 0.00 57 1057.9
20260903082537 82 241 2.0 4.0 0.00 0.00 0.00 57 1057.9
20260903082501 82 252 2.0 4.0 0.00 0.00 0.00 58 1057.8
20260903082433 82 253 2.0 4.0 0.00 0.00 0.00 60 1057.8
20260903082425 82 253 2.0 4.0 0.00 0.00 0.00 60 1057.8
20260903082102 82 255 2.0 4.0 0.00 0.00 0.00 60 1057.8
20260903082037 82 255 2.0 4.0 0.00 0.00 0.00 59 1057.8
20260903081955 82 255 2.0 4.0 0.00 0.00 0.00 58 1057.8
20260903081855 82 255 2.0 4.0 0.00 0.00 0.00 61 1057.8
20260903081757 82 255 2.0 4.0 0.00 0.00 0.00 61 1057.9
20260903081748 81 255 2.0 4.0 0.00 0.00 0.00 61 1057.8
20260903081736 81 256 2.0 4.0 0.00 0.00 0.00 61 1057.8
20260903081732 81 256 2.0 4.0 0.00 0.00 0.00 62 1057.8
20260903081717 81 257 2.0 4.0 0.00 0.00 0.00 63 1057.8
20260903081707 81 258 2.0 4.0 0.00 0.00 0.00 63 1057.9
20260903081659 81 258 2.0 4.0 0.00 0.00 0.00 63 1057.8
20260903081649 81 258 2.0 4.0 0.00 0.00 0.00 63 1057.8
20260903081633 80 258 3.0 4.0 0.00 0.00 0.00 63 1057.8
20260903080933 80 257 2.0 4.0 0.00 0.00 0.00 64 1057.9
20260903080922 80 257 2.0 4.0 0.00 0.00 0.00 63 1057.9
20260903080910 80 257 2.0 4.0 0.00 0.00 0.00 64 1057.9
20260903080906 80 257 2.0 4.0 0.00 0.00 0.00 63 1057.9
20260903080853 80 256 2.0 4.0 0.00 0.00 0.00 63 1057.9
20260903080404 80 257 2.0 4.0 0.00 0.00 0.00 64 1057.9
20260903080137 80 257 2.0 3.0 0.00 0.00 0.00 64 1057.9
20260903080122 80 257 2.0 3.0 0.00 0.00 0.00 64 1057.9
20260903075855 80 257 2.0 4.0 0.00 0.00 0.00 64 1057.9
20260903075554 80 257 2.0 4.0 0.00 0.00 0.00 64 1057.9
20260903075544 80 257 2.0 4.0 0.00 0.00 0.00 64 1057.9
20260903075533 80 257 2.0 4.0 0.00 0.00 0.00 64 1057.9
20260903075521 80 256 2.0 4.0 0.00 0.00 0.00 64 1057.9
20260903075512 80 257 2.0 4.0 0.00 0.00 0.00 64 1057.9
20260903075452 80 258 2.0 4.0 0.00 0.00 0.00 63 1057.9
20260903074748 80 258 2.0 4.0 0.00 0.00 0.00 64 1057.9
20260903074733 80 259 2.0 4.0 0.00 0.00 0.00 64 1057.9
20260903074723 80 258 2.0 4.0 0.00 0.00 0.00 64 1058.0
20260903074715 80 274 2.0 4.0 0.00 0.00 0.00 64 1058.0
20260903074132 80 274 1.0 4.0 0.00 0.00 0.00 64 1057.9
20260903074009 80 274 1.0 4.0 0.00 0.00 0.00 65 1057.9
20260903073932 80 274 1.0 4.0 0.00 0.00 0.00 65 1057.9
20260903073831 79 274 1.0 3.0 0.00 0.00 0.00 65 1057.9
20260903073732 79 274 1.0 2.0 0.00 0.00 0.00 67 1057.9
20260903073631 79 275 1.0 2.0 0.00 0.00 0.00 66 1057.9
20260903073510 79 274 1.0 2.0 0.00 0.00 0.00 66 1057.9
20260903073430 78 274 1.0 6.0 0.00 0.00 0.00 67 1057.9
20260903073331 78 275 1.0 6.0 0.00 0.00 0.00 67 1057.9
20260903073253 78 274 1.0 6.0 0.00 0.00 0.00 67 1057.9
20260903073245 78 274 1.0 6.0 0.00 0.00 0.00 67 1057.9
20260903073229 78 275 1.0 6.0 0.00 0.00 0.00 67 1057.9
20260903072932 78 274 2.0 6.0 0.00 0.00 0.00 68 1057.9
20260903072831 77 274 2.0 6.0 0.00 0.00 0.00 68 1057.9
20260903072752 77 274 2.0 6.0 0.00 0.00 0.00 68 1057.9
20260903072744 77 274 2.0 6.0 0.00 0.00 0.00 68 1057.9
20260903072726 77 274 2.0 6.0 0.00 0.00 0.00 69 1058.0
20260903072431 77 274 2.0 6.0 0.00 0.00 0.00 69 1057.9
20260903072408 77 275 2.0 6.0 0.00 0.00 0.00 69 1058.0
20260903072358 77 274 2.0 6.0 0.00 0.00 0.00 69 1058.0
20260903072034 76 274 2.0 6.0 0.00 0.00 0.00 69 1058.0
20260903072010 76 276 2.0 6.0 0.00 0.00 0.00 70 1058.0
20260903071931 76 274 2.0 6.0 0.00 0.00 0.00 70 1058.0
20260903071904 76 275 2.0 6.0 0.00 0.00 0.00 70 1058.0
20260903071856 76 275 2.0 6.0 0.00 0.00 0.00 70 1058.0
20260903071610 76 276 2.0 6.0 0.00 0.00 0.00 70 1058.0
20260903071603 76 276 2.0 6.0 0.00 0.00 0.00 71 1058.0
20260903071555 76 276 2.0 6.0 0.00 0.00 0.00 71 1058.0
20260903071254 75 276 2.0 6.0 0.00 0.00 0.00 71 1057.9
20260903071246 75 276 2.0 6.0 0.00 0.00 0.00 71 1057.9
20260903071230 75 276 2.0 6.0 0.00 0.00 0.00 71 1057.9
20260903071221 75 277 2.0 6.0 0.00 0.00 0.00 71 1057.9
20260903070957 75 277 2.0 6.0 0.00 0.00 0.00 71 1057.9
20260903070631 74 276 2.0 6.0 0.00 0.00 0.00 72 1057.9
20260903070532 74 278 2.0 4.0 0.00 0.00 0.00 73 1057.8
20260903070507 74 278 2.0 4.0 0.00 0.00 0.00 73 1057.9
20260903070431 74 277 2.0 6.0 0.00 0.00 0.00 73 1057.9
20260903070331 74 277 2.0 6.0 0.00 0.00 0.00 73 1057.9
20260903070251 74 277 2.0 6.0 0.00 0.00 0.00 73 1057.9
20260903070243 74 277 2.0 7.0 0.00 0.00 0.00 74 1057.9
20260903070223 73 277 2.0 7.0 0.00 0.00 0.00 74 1057.9
20260903065930 73 277 2.0 7.0 0.00 0.00 0.00 74 1057.9
20260903065827 73 277 2.0 7.0 0.00 0.00 0.00 74 1057.9
20260903065727 73 277 2.0 7.0 0.00 0.00 0.00 74 1057.9
20260903065715 73 277 2.0 7.0 0.00 0.00 0.00 75 1057.9
20260903065702 73 277 2.0 7.0 0.00 0.00 0.00 75 1057.9
20260903065654 73 277 2.0 7.0 0.00 0.00 0.00 75 1057.8
20260903065425 72 277 3.0 7.0 0.00 0.00 0.00 75 1057.8
20260903065408 72 278 3.0 4.0 0.00 0.00 0.00 75 1057.9
20260903065133 72 278 3.0 4.0 0.00 0.00 0.00 76 1057.8
20260903065119 72 278 3.0 4.0 0.00 0.00 0.00 76 1057.8
20260903064854 71 278 3.0 4.0 0.00 0.00 0.00 76 1057.9
20260903064614 71 278 3.0 4.0 0.00 0.00 0.00 76 1057.8
20260903064601 71 278 3.0 4.0 0.00 0.00 0.00 76 1057.8
20260903064337 71 279 3.0 4.0 0.00 0.00 0.00 76 1057.8
20260903064028 71 279 3.0 4.0 0.00 0.00 0.00 77 1057.7
20260903064008 71 278 3.0 4.0 0.00 0.00 0.00 77 1057.8
20260903063915 71 279 3.0 4.0 0.00 0.00 0.00 77 1057.8
20260903063812 70 279 3.0 4.0 0.00 0.00 0.00 77 1057.8
20260903063752 70 278 3.0 4.0 0.00 0.00 0.00 77 1057.7
20260903063744 70 280 3.0 4.0 0.00 0.00 0.00 77 1057.7
20260903063726 70 278 3.0 4.0 0.00 0.00 0.00 77 1057.7
20260903063406 70 278 3.0 4.0 0.00 0.00 0.00 77 1057.7
20260903063305 70 278 3.0 4.0 0.00 0.00 0.00 77 1057.7
20260903063247 70 278 3.0 4.0 0.00 0.00 0.00 78 1057.7
20260903063239 70 278 3.0 4.0 0.00 0.00 0.00 78 1057.7
20260903063222 69 278 3.0 6.0 0.00 0.00 0.00 78 1057.7
20260903062904 69 279 3.0 6.0 0.00 0.00 0.00 78 1057.6
20260903062834 69 280 3.0 7.0 0.00 0.00 0.00 78 1057.6
20260903062826 69 279 3.0 7.0 0.00 0.00 0.00 78 1057.6
20260903062506 69 280 4.0 7.0 0.00 0.00 0.00 78 1057.6
20260903062500 69 279 4.0 7.0 0.00 0.00 0.00 78 1057.6
20260903062403 69 280 4.0 7.0 0.00 0.00 0.00 78 1057.6
20260903062306 69 279 4.0 7.0 0.00 0.00 0.00 79 1057.6
20260903062240 69 279 4.0 7.0 0.00 0.00 0.00 79 1057.6
20260903062233 69 279 4.0 7.0 0.00 0.00 0.00 79 1057.5
20260903062211 69 280 4.0 7.0 0.00 0.00 0.00 79 1057.6
20260903061937 68 280 3.0 7.0 0.00 0.00 0.00 79 1057.6
20260903061928 68 280 3.0 6.0 0.00 0.00 0.00 80 1057.6
20260903061604 68 280 3.0 6.0 0.00 0.00 0.00 80 1057.5
20260903061504 68 281 3.0 4.0 0.00 0.00 0.00 80 1057.6
20260903061452 68 280 3.0 4.0 0.00 0.00 0.00 80 1057.6
20260903061404 68 280 3.0 6.0 0.00 0.00 0.00 80 1057.5
20260903061303 68 280 4.0 6.0 0.00 0.00 0.00 80 1057.5
20260903061203 68 280 4.0 7.0 0.00 0.00 0.00 81 1057.5
20260903061117 68 280 4.0 7.0 0.00 0.00 0.00 81 1057.5
20260903061030 67 280 4.0 7.0 0.00 0.00 0.00 81 1057.5
20260903061013 67 280 4.0 7.0 0.00 0.00 0.00 81 1057.5
20260903061001 67 280 4.0 8.0 0.00 0.00 0.00 81 1057.5
20260903060949 67 280 4.0 8.0 0.00 0.00 0.00 81 1057.4
20260903060450 67 280 5.0 8.0 0.00 0.00 0.00 81 1057.4
20260903060403 67 280 5.0 8.0 0.00 0.00 0.00 81 1057.4
20260903060304 67 281 5.0 8.0 0.00 0.00 0.00 81 1057.4
20260903060204 67 279 5.0 8.0 0.00 0.00 0.00 82 1057.4
20260903060117 67 280 5.0 8.0 0.00 0.00 0.00 82 1057.4
20260903060004 67 280 5.0 8.0 0.00 0.00 0.00 82 1057.4
20260903055950 67 280 5.0 8.0 0.00 0.00 0.00 82 1057.4
20260903055903 67 279 5.0 8.0 0.00 0.00 0.00 82 1057.4
20260903055804 67 280 5.0 7.0 0.00 0.00 0.00 82 1057.4
20260903055703 67 280 4.0 7.0 0.00 0.00 0.00 82 1057.4
20260903055644 67 280 4.0 7.0 0.00 0.00 0.00 82 1057.3
20260903055632 67 279 4.0 7.0 0.00 0.00 0.00 82 1057.3
20260903055626 67 280 4.0 7.0 0.00 0.00 0.00 82 1057.3
20260903055306 67 279 4.0 7.0 0.00 0.00 0.00 82 1057.3
20260903055231 67 280 4.0 7.0 0.00 0.00 0.00 82 1057.3
20260903055223 66 280 4.0 7.0 0.00 0.00 0.00 82 1057.3
20260903055212 66 280 4.0 7.0 0.00 0.00 0.00 82 1057.3
20260903055154 66 280 4.0 7.0 0.00 0.00 0.00 82 1057.3
20260903055146 66 280 4.0 7.0 0.00 0.00 0.00 82 1057.2
20260903055138 66 280 4.0 7.0 0.00 0.00 0.00 82 1057.2
20260903054904 66 281 4.0 7.0 0.00 0.00 0.00 82 1057.2
20260903054857 66 283 4.0 7.0 0.00 0.00 0.00 82 1057.2
20260903054849 66 287 4.0 7.0 0.00 0.00 0.00 82 1057.2
20260903054841 66 289 4.0 7.0 0.00 0.00 0.00 82 1057.2
20260903054834 66 289 4.0 7.0 0.00 0.00 0.00 82 1057.2
20260903054825 66 291 4.0 7.0 0.00 0.00 0.00 82 1057.2
20260903054558 66 291 4.0 7.0 0.00 0.00 0.00 82 1057.2
20260903054544 66 279 4.0 7.0 0.00 0.00 0.00 82 1057.2
20260903054532 66 278 4.0 7.0 0.00 0.00 0.00 82 1057.2
20260903054043 66 278 4.0 8.0 0.00 0.00 0.00 82 1057.2
20260903053818 66 278 4.0 8.0 0.00 0.00 0.00 82 1057.2
20260903053806 66 278 4.0 8.0 0.00 0.00 0.00 81 1057.2
20260903053758 66 278 4.0 8.0 0.00 0.00 0.00 81 1057.2
20260903053530 66 278 5.0 8.0 0.00 0.00 0.00 81 1057.2
20260903053522 66 280 5.0 8.0 0.00 0.00 0.00 81 1057.2
20260903053515 66 278 5.0 8.0 0.00 0.00 0.00 81 1057.1
20260903053243 66 278 5.0 8.0 0.00 0.00 0.00 82 1057.1
20260903053233 66 278 4.0 8.0 0.00 0.00 0.00 82 1057.1
20260903053001 66 276 4.0 8.0 0.00 0.00 0.00 82 1057.1
20260903052953 66 277 4.0 8.0 0.00 0.00 0.00 81 1057.1
20260903052945 66 277 4.0 8.0 0.00 0.00 0.00 82 1057.1
20260903052711 66 276 4.0 8.0 0.00 0.00 0.00 82 1057.1
20260903052650 66 276 4.0 8.0 0.00 0.00 0.00 82 1057.1
20260903052208 66 276 4.0 7.0 0.00 0.00 0.00 81 1057.1
20260903052200 66 275 4.0 7.0 0.00 0.00 0.00 81 1057.1
20260903052151 66 274 4.0 7.0 0.00 0.00 0.00 81 1057.1
20260903052139 66 274 4.0 7.0 0.00 0.00 0.00 82 1057.1
20260903052135 66 274 4.0 7.0 0.00 0.00 0.00 81 1057.1
20260903051156 66 274 4.0 8.0 0.00 0.00 0.00 81 1057.0
20260903050901 66 274 4.0 8.0 0.00 0.00 0.00 81 1057.0
20260903050758 66 274 4.0 8.0 0.00 0.00 0.00 81 1057.0
20260903050657 66 273 4.0 8.0 0.00 0.00 0.00 81 1057.1
20260903050612 66 272 4.0 8.0 0.00 0.00 0.00 81 1057.1
20260903050558 66 269 4.0 8.0 0.00 0.00 0.00 81 1057.1
20260903050543 66 268 5.0 8.0 0.00 0.00 0.00 81 1057.1
20260903050533 66 268 5.0 8.0 0.00 0.00 0.00 81 1057.1
20260903045934 66 268 5.0 7.0 0.00 0.00 0.00 81 1057.0
20260903045851 66 268 5.0 7.0 0.00 0.00 0.00 81 1057.1
20260903045749 66 268 4.0 7.0 0.00 0.00 0.00 81 1057.1
20260903045725 66 262 4.0 7.0 0.00 0.00 0.00 81 1057.1
20260903045714 66 282 4.0 7.0 0.00 0.00 0.00 81 1057.0
20260903045436 66 285 4.0 7.0 0.00 0.00 0.00 81 1057.0
20260903045345 66 283 4.0 7.0 0.00 0.00 0.00 81 1057.0
20260903045245 66 285 4.0 7.0 0.00 0.00 0.00 81 1057.0
20260903045214 66 284 4.0 7.0 0.00 0.00 0.00 80 1057.0
20260903045205 66 284 4.0 7.0 0.00 0.00 0.00 80 1056.9
20260903045144 66 284 4.0 7.0 0.00 0.00 0.00 80 1057.0
20260903045133 66 285 4.0 7.0 0.00 0.00 0.00 80 1057.0
20260903044636 66 285 4.0 7.0 0.00 0.00 0.00 80 1057.0
20260903044622 66 285 4.0 7.0 0.00 0.00 0.00 80 1057.0
20260903044608 66 284 4.0 7.0 0.00 0.00 0.00 80 1057.0
20260903044600 66 285 4.0 7.0 0.00 0.00 0.00 80 1057.0
20260903044329 66 285 4.0 7.0 0.00 0.00 0.00 80 1056.9
20260903044318 66 285 4.0 7.0 0.00 0.00 0.00 80 1057.0
20260903043804 66 289 4.0 8.0 0.00 0.00 0.00 80 1056.9
20260903043756 66 280 4.0 8.0 0.00 0.00 0.00 80 1056.9
20260903043432 66 280 4.0 8.0 0.00 0.00 0.00 80 1056.9
20260903043333 66 280 4.0 8.0 0.00 0.00 0.00 80 1056.9
20260903043233 66 279 4.0 8.0 0.00 0.00 0.00 80 1056.9
20260903043217 66 279 4.0 8.0 0.00 0.00 0.00 80 1057.0
20260903043204 66 277 4.0 8.0 0.00 0.00 0.00 80 1057.0
20260903043149 66 276 4.0 8.0 0.00 0.00 0.00 80 1056.9
20260903042831 66 288 4.0 7.0 0.00 0.00 0.00 80 1056.9
20260903042729 66 289 4.0 7.0 0.00 0.00 0.00 80 1056.9
20260903042631 66 288 4.0 7.0 0.00 0.00 0.00 80 1056.9
20260903042531 66 290 4.0 5.0 0.00 0.00 0.00 81 1056.9
20260903042440 66 291 4.0 7.0 0.00 0.00 0.00 81 1056.9
20260903042430 66 291 4.0 7.0 0.00 0.00 0.00 81 1056.9
20260903042418 66 291 4.0 7.0 0.00 0.00 0.00 81 1056.9
20260903042148 67 291 4.0 7.0 0.00 0.00 0.00 81 1056.9
20260903042129 66 292 4.0 7.0 0.00 0.00 0.00 81 1056.9
20260903041902 66 291 4.0 7.0 0.00 0.00 0.00 81 1056.9
20260903041845 66 291 4.0 7.0 0.00 0.00 0.00 82 1056.9
20260903041832 66 291 4.0 7.0 0.00 0.00 0.00 82 1056.9
20260903041606 66 293 4.0 7.0 0.00 0.00 0.00 82 1056.9
20260903041556 66 293 4.0 7.0 0.00 0.00 0.00 82 1056.9
20260903041548 66 279 4.0 7.0 0.00 0.00 0.00 82 1056.9
20260903041311 66 278 4.0 7.0 0.00 0.00 0.00 82 1056.8
20260903041302 66 278 4.0 7.0 0.00 0.00 0.00 82 1056.9
20260903040720 66 278 4.0 6.0 0.00 0.00 0.00 83 1056.9
20260903040620 66 278 4.0 6.0 0.00 0.00 0.00 83 1056.9
20260903040518 66 278 4.0 6.0 0.00 0.00 0.00 83 1056.9
20260903040431 66 278 3.0 6.0 0.00 0.00 0.00 83 1057.0
20260903040416 66 277 3.0 6.0 0.00 0.00 0.00 83 1057.0
20260903040347 66 278 3.0 6.0 0.00 0.00 0.00 83 1057.0
20260903040338 66 277 3.0 6.0 0.00 0.00 0.00 83 1057.0
20260903040049 66 277 4.0 7.0 0.00 0.00 0.00 82 1057.0
20260903040042 66 276 4.0 7.0 0.00 0.00 0.00 82 1057.0
20260903035716 66 276 4.0 7.0 0.00 0.00 0.00 82 1057.0
20260903035615 66 277 4.0 7.0 0.00 0.00 0.00 82 1057.0
20260903035517 66 276 4.0 7.0 0.00 0.00 0.00 82 1057.0
20260903035418 66 276 4.0 7.0 0.00 0.00 0.00 82 1057.0
20260903035401 66 277 3.0 7.0 0.00 0.00 0.00 82 1057.0
20260903035353 66 278 3.0 7.0 0.00 0.00 0.00 82 1057.0
20260903035346 66 278 3.0 7.0 0.00 0.00 0.00 82 1057.0
20260903035333 66 278 3.0 6.0 0.00 0.00 0.00 82 1057.0
20260903035325 66 278 3.0 6.0 0.00 0.00 0.00 82 1057.0
20260903034836 66 278 3.0 6.0 0.00 0.00 0.00 82 1057.0
20260903034553 66 278 3.0 6.0 0.00 0.00 0.00 82 1057.1
20260903034538 67 278 3.0 6.0 0.00 0.00 0.00 82 1057.1
20260903034215 67 278 3.0 6.0 0.00 0.00 0.00 82 1057.1
20260903034158 67 278 3.0 6.0 0.00 0.00 0.00 82 1057.1
20260903034145 67 277 3.0 6.0 0.00 0.00 0.00 82 1057.1
20260903034135 67 278 3.0 6.0 0.00 0.00 0.00 82 1057.2
20260903033848 67 278 3.0 6.0 0.00 0.00 0.00 82 1057.1
20260903033835 67 278 3.0 6.0 0.00 0.00 0.00 81 1057.1
20260903033512 67 278 3.0 6.0 0.00 0.00 0.00 81 1057.2
20260903033412 67 278 3.0 6.0 0.00 0.00 0.00 81 1057.2
20260903033314 67 278 3.0 6.0 0.00 0.00 0.00 81 1057.2
20260903033211 67 278 3.0 6.0 0.00 0.00 0.00 81 1057.2
20260903033112 67 278 3.0 6.0 0.00 0.00 0.00 81 1057.2
20260903033052 67 278 3.0 6.0 0.00 0.00 0.00 81 1057.2
20260903033038 67 278 3.0 6.0 0.00 0.00 0.00 81 1057.2
20260903032712 67 278 3.0 6.0 0.00 0.00 0.00 81 1057.2
20260903032612 67 278 3.0 6.0 0.00 0.00 0.00 81 1057.2
20260903032511 67 278 3.0 6.0 0.00 0.00 0.00 81 1057.2
20260903032412 67 278 3.0 4.0 0.00 0.00 0.00 81 1057.2
20260903032311 67 278 3.0 4.0 0.00 0.00 0.00 81 1057.2
20260903032213 67 278 3.0 6.0 0.00 0.00 0.00 81 1057.2
20260903032113 67 278 3.0 6.0 0.00 0.00 0.00 81 1057.1
20260903032013 67 278 3.0 6.0 0.00 0.00 0.00 81 1057.2
20260903031912 67 278 3.0 6.0 0.00 0.00 0.00 81 1057.1
20260903031812 67 278 3.0 6.0 0.00 0.00 0.00 81 1057.1
20260903031748 67 280 3.0 6.0 0.00 0.00 0.00 81 1057.1
20260903031736 67 278 3.0 6.0 0.00 0.00 0.00 81 1057.2
20260903031445 67 278 4.0 6.0 0.00 0.00 0.00 81 1057.2
20260903031437 67 277 3.0 6.0 0.00 0.00 0.00 81 1057.2
20260903031423 67 278 3.0 6.0 0.00 0.00 0.00 81 1057.1
20260903031151 67 278 3.0 6.0 0.00 0.00 0.00 81 1057.1
20260903030907 67 278 3.0 6.0 0.00 0.00 0.00 81 1057.1
20260903030808 67 278 3.0 6.0 0.00 0.00 0.00 81 1057.1
20260903030708 67 278 3.0 7.0 0.00 0.00 0.00 81 1057.1
20260903030608 67 277 4.0 7.0 0.00 0.00 0.00 81 1057.1
20260903030508 67 278 4.0 7.0 0.00 0.00 0.00 81 1057.2
20260903030429 67 278 4.0 7.0 0.00 0.00 0.00 81 1057.2
20260903030408 67 278 4.0 7.0 0.00 0.00 0.00 81 1057.1
20260903030308 67 278 4.0 7.0 0.00 0.00 0.00 81 1057.1
20260903030208 67 278 4.0 7.0 0.00 0.00 0.00 81 1057.1
20260903030109 67 278 4.0 7.0 0.00 0.00 0.00 81 1057.1
20260903030008 67 278 4.0 7.0 0.00 0.00 0.00 81 1057.1
20260903025908 67 278 4.0 7.0 0.00 0.00 0.00 81 1057.1
20260903025807 67 278 4.0 7.0 0.00 0.00 0.00 81 1057.1
20260903025707 67 278 4.0 7.0 0.00 0.00 0.00 81 1057.2
20260903025654 67 278 4.0 6.0 0.00 0.00 0.00 81 1057.2
20260903025642 67 278 4.0 7.0 0.00 0.00 0.00 81 1057.2
20260903025635 67 278 4.0 7.0 0.00 0.00 0.00 81 1057.2
20260903025307 67 278 4.0 7.0 0.00 0.00 0.00 81 1057.2
20260903025208 67 278 4.0 7.0 0.00 0.00 0.00 81 1057.2
20260903025107 67 277 4.0 7.0 0.00 0.00 0.00 81 1057.2
20260903025008 67 277 4.0 7.0 0.00 0.00 0.00 81 1057.3
20260903024929 67 277 4.0 7.0 0.00 0.00 0.00 81 1057.3
20260903024908 67 278 4.0 7.0 0.00 0.00 0.00 81 1057.2
20260903024830 67 278 4.0 7.0 0.00 0.00 0.00 81 1057.3
20260903024822 67 279 5.0 7.0 0.00 0.00 0.00 81 1057.2
20260903024810 67 278 5.0 7.0 0.00 0.00 0.00 81 1057.3
20260903024757 67 278 5.0 7.0 0.00 0.00 0.00 81 1057.3
20260903024750 67 278 5.0 7.0 0.00 0.00 0.00 81 1057.3
20260903024208 67 276 4.0 7.0 0.00 0.00 0.00 81 1057.3
20260903024108 67 276 4.0 7.0 0.00 0.00 0.00 81 1057.3
20260903024008 67 277 4.0 7.0 0.00 0.00 0.00 81 1057.3
20260903023908 67 276 4.0 7.0 0.00 0.00 0.00 81 1057.3
20260903023803 67 276 4.0 7.0 0.00 0.00 0.00 81 1057.3
20260903023702 67 276 4.0 7.0 0.00 0.00 0.00 81 1057.3
20260903023602 67 276 4.0 7.0 0.00 0.00 0.00 81 1057.3
20260903023501 67 277 4.0 7.0 0.00 0.00 0.00 82 1057.3
20260903023430 67 276 4.0 7.0 0.00 0.00 0.00 82 1057.3
20260903023421 67 277 4.0 7.0 0.00 0.00 0.00 82 1057.3
20260903023414 67 277 4.0 7.0 0.00 0.00 0.00 82 1057.2
20260903023401 67 277 4.0 7.0 0.00 0.00 0.00 82 1057.2
20260903023353 67 277 4.0 7.0 0.00 0.00 0.00 82 1057.3
20260903023342 67 277 4.0 7.0 0.00 0.00 0.00 82 1057.2
20260903022802 67 276 5.0 8.0 0.00 0.00 0.00 82 1057.3
20260903022702 67 276 5.0 8.0 0.00 0.00 0.00 82 1057.2
20260903022644 67 277 5.0 8.0 0.00 0.00 0.00 82 1057.2
20260903022632 67 277 5.0 8.0 0.00 0.00 0.00 82 1057.2
20260903022624 67 276 5.0 8.0 0.00 0.00 0.00 82 1057.2
20260903022305 67 276 4.0 8.0 0.00 0.00 0.00 82 1057.3
20260903022201 67 275 4.0 8.0 0.00 0.00 0.00 82 1057.3
20260903022132 67 275 4.0 8.0 0.00 0.00 0.00 82 1057.3
20260903022121 67 275 4.0 8.0 0.00 0.00 0.00 82 1057.2
20260903022114 67 274 4.0 8.0 0.00 0.00 0.00 82 1057.2
20260903022101 67 274 4.0 8.0 0.00 0.00 0.00 82 1057.3
20260903022052 67 274 4.0 7.0 0.00 0.00 0.00 82 1057.3
20260903021825 67 274 4.0 7.0 0.00 0.00 0.00 82 1057.3
20260903021812 67 273 4.0 7.0 0.00 0.00 0.00 82 1057.3
20260903021541 67 273 4.0 7.0 0.00 0.00 0.00 82 1057.3
20260903021529 67 276 4.0 7.0 0.00 0.00 0.00 81 1057.3
20260903020927 67 275 4.0 7.0 0.00 0.00 0.00 82 1057.3
20260903020849 67 275 4.0 7.0 0.00 0.00 0.00 82 1057.3
20260903020818 67 275 4.0 7.0 0.00 0.00 0.00 82 1057.3
20260903020809 67 275 4.0 7.0 0.00 0.00 0.00 82 1057.3
20260903020503 67 275 4.0 6.0 0.00 0.00 0.00 82 1057.2
20260903020454 67 274 4.0 6.0 0.00 0.00 0.00 82 1057.3
20260903020442 67 274 4.0 6.0 0.00 0.00 0.00 82 1057.3
20260903020209 67 274 4.0 6.0 0.00 0.00 0.00 82 1057.3
20260903015926 67 274 4.0 6.0 0.00 0.00 0.00 82 1057.4
20260903015841 67 274 3.0 6.0 0.00 0.00 0.00 82 1057.4
20260903015741 67 274 3.0 6.0 0.00 0.00 0.00 82 1057.3
20260903015641 67 274 3.0 6.0 0.00 0.00 0.00 82 1057.3
20260903015538 67 274 3.0 6.0 0.00 0.00 0.00 82 1057.3
20260903015424 67 274 3.0 6.0 0.00 0.00 0.00 82 1057.3
20260903015352 67 274 3.0 6.0 0.00 0.00 0.00 82 1057.3
20260903015344 67 274 3.0 6.0 0.00 0.00 0.00 82 1057.3
20260903015333 67 274 3.0 6.0 0.00 0.00 0.00 82 1057.3
20260903015322 67 274 3.0 6.0 0.00 0.00 0.00 82 1057.3
20260903015311 67 274 3.0 6.0 0.00 0.00 0.00 82 1057.3
20260903014732 67 273 3.0 6.0 0.00 0.00 0.00 82 1057.3
20260903014628 67 274 3.0 6.0 0.00 0.00 0.00 82 1057.3
20260903014529 67 273 3.0 6.0 0.00 0.00 0.00 82 1057.3
20260903014432 67 274 3.0 6.0 0.00 0.00 0.00 82 1057.3
20260903014425 67 273 3.0 6.0 0.00 0.00 0.00 82 1057.3
20260903014329 67 274 3.0 6.0 0.00 0.00 0.00 82 1057.3
20260903014228 67 273 3.0 6.0 0.00 0.00 0.00 82 1057.3
20260903014123 67 274 3.0 6.0 0.00 0.00 0.00 82 1057.3
20260903014100 67 273 3.0 6.0 0.00 0.00 0.00 82 1057.3
20260903014046 67 273 3.0 6.0 0.00 0.00 0.00 82 1057.3
20260903013721 67 274 3.0 6.0 0.00 0.00 0.00 82 1057.4
20260903013632 67 274 3.0 6.0 0.00 0.00 0.00 82 1057.3
20260903013618 67 274 3.0 6.0 0.00 0.00 0.00 82 1057.3
20260903013558 67 274 3.0 6.0 0.00 0.00 0.00 82 1057.3
20260903013548 67 274 3.0 6.0 0.00 0.00 0.00 82 1057.3
20260903013006 67 274 3.0 6.0 0.00 0.00 0.00 82 1057.4
20260903012924 67 274 3.0 4.0 0.00 0.00 0.00 82 1057.4
20260903012908 67 274 3.0 4.0 0.00 0.00 0.00 82 1057.3
20260903012805 67 274 3.0 6.0 0.00 0.00 0.00 82 1057.4
20260903012705 67 274 3.0 6.0 0.00 0.00 0.00 82 1057.4
20260903012603 67 274 3.0 6.0 0.00 0.00 0.00 81 1057.4
20260903012504 67 274 3.0 6.0 0.00 0.00 0.00 81 1057.4
20260903012404 67 274 3.0 6.0 0.00 0.00 0.00 81 1057.4
20260903012306 67 274 3.0 6.0 0.00 0.00 0.00 81 1057.3
20260903012205 67 274 3.0 6.0 0.00 0.00 0.00 81 1057.4
20260903012119 67 274 3.0 6.0 0.00 0.00 0.00 81 1057.3
20260903012107 67 274 3.0 6.0 0.00 0.00 0.00 81 1057.3
20260903012059 67 274 3.0 6.0 0.00 0.00 0.00 81 1057.3
20260903012052 67 274 4.0 6.0 0.00 0.00 0.00 82 1057.3
20260903012042 67 274 3.0 6.0 0.00 0.00 0.00 82 1057.3
20260903012033 67 276 3.0 6.0 0.00 0.00 0.00 82 1057.3
20260903011532 67 274 3.0 6.0 0.00 0.00 0.00 82 1057.3
20260903011525 67 276 3.0 6.0 0.00 0.00 0.00 82 1057.3
20260903011203 67 274 3.0 6.0 0.00 0.00 0.00 82 1057.3
20260903011101 67 274 3.0 6.0 0.00 0.00 0.00 82 1057.3
20260903011002 67 274 3.0 6.0 0.00 0.00 0.00 82 1057.3
20260903010955 67 273 3.0 6.0 0.00 0.00 0.00 82 1057.3
20260903010943 67 273 3.0 6.0 0.00 0.00 0.00 81 1057.4
20260903010716 67 274 3.0 7.0 0.00 0.00 0.00 82 1057.3
20260903010650 67 274 4.0 7.0 0.00 0.00 0.00 82 1057.3
20260903010641 67 274 4.0 7.0 0.00 0.00 0.00 82 1057.4
20260903010410 67 359 4.0 7.0 0.00 0.00 0.00 82 1057.4
20260903010402 67 274 4.0 7.0 0.00 0.00 0.00 82 1057.3
20260903005846 67 274 4.0 7.0 0.00 0.00 0.00 82 1057.4
20260903005745 67 274 4.0 7.0 0.00 0.00 0.00 83 1057.4
20260903005700 67 274 4.0 6.0 0.00 0.00 0.00 83 1057.4
20260903005650 67 274 3.0 6.0 0.00 0.00 0.00 82 1057.4
20260903005632 67 274 3.0 6.0 0.00 0.00 0.00 83 1057.4
20260903005343 67 275 3.0 6.0 0.00 0.00 0.00 83 1057.4
20260903005242 67 275 3.0 6.0 0.00 0.00 0.00 82 1057.4
20260903005143 67 276 3.0 6.0 0.00 0.00 0.00 82 1057.4
20260903005041 67 276 3.0 6.0 0.00 0.00 0.00 82 1057.5
20260903004941 67 275 3.0 6.0 0.00 0.00 0.00 82 1057.5
20260903004917 67 276 3.0 6.0 0.00 0.00 0.00 82 1057.5
20260903004841 67 276 3.0 6.0 0.00 0.00 0.00 82 1057.4
20260903004741 67 275 3.0 6.0 0.00 0.00 0.00 82 1057.5
20260903004658 67 276 3.0 6.0 0.00 0.00 0.00 82 1057.5
20260903004648 67 276 3.0 6.0 0.00 0.00 0.00 82 1057.5
20260903004626 67 275 3.0 6.0 0.00 0.00 0.00 82 1057.5
20260903004400 67 276 3.0 6.0 0.00 0.00 0.00 82 1057.5
20260903004033 67 276 3.0 6.0 0.00 0.00 0.00 82 1057.5
20260903003930 67 276 3.0 6.0 0.00 0.00 0.00 82 1057.5
20260903003922 67 275 3.0 6.0 0.00 0.00 0.00 82 1057.5
20260903003910 67 275 3.0 6.0 0.00 0.00 0.00 82 1057.6
20260903003900 67 275 3.0 6.0 0.00 0.00 0.00 82 1057.5
20260903003625 67 273 3.0 6.0 0.00 0.00 0.00 82 1057.6
20260903003329 67 277 3.0 6.0 0.00 0.00 0.00 82 1057.6
20260903003227 67 276 3.0 6.0 0.00 0.00 0.00 82 1057.5
20260903003127 67 277 3.0 6.0 0.00 0.00 0.00 82 1057.6
20260903003026 67 276 3.0 4.0 0.00 0.00 0.00 81 1057.6
20260903002922 67 277 3.0 4.0 0.00 0.00 0.00 81 1057.6
20260903002909 67 276 3.0 4.0 0.00 0.00 0.00 81 1057.6
20260903002822 67 276 3.0 6.0 0.00 0.00 0.00 81 1057.6
20260903002756 67 277 3.0 6.0 0.00 0.00 0.00 81 1057.6
20260903002745 67 277 3.0 6.0 0.00 0.00 0.00 81 1057.6
20260903002423 67 277 3.0 6.0 0.00 0.00 0.00 81 1057.6
20260903002409 67 277 3.0 6.0 0.00 0.00 0.00 81 1057.5
20260903002321 67 277 3.0 6.0 0.00 0.00 0.00 81 1057.5
20260903002221 67 277 3.0 6.0 0.00 0.00 0.00 81 1057.6
20260903002120 67 277 4.0 6.0 0.00 0.00 0.00 81 1057.6
20260903002021 67 276 4.0 6.0 0.00 0.00 0.00 81 1057.6
20260903001921 67 277 4.0 6.0 0.00 0.00 0.00 81 1057.5
20260903001909 67 276 4.0 6.0 0.00 0.00 0.00 81 1057.5
20260903001819 67 276 4.0 6.0 0.00 0.00 0.00 81 1057.5
20260903001719 67 276 4.0 8.0 0.00 0.00 0.00 81 1057.5
20260903001617 67 276 4.0 8.0 0.00 0.00 0.00 81 1057.5
20260903001517 67 275 4.0 8.0 0.00 0.00 0.00 81 1057.6
20260903001415 67 275 4.0 8.0 0.00 0.00 0.00 81 1057.6
20260903001407 67 274 4.0 8.0 0.00 0.00 0.00 81 1057.6
20260903001312 67 274 4.0 8.0 0.00 0.00 0.00 81 1057.6
20260903001212 67 274 4.0 8.0 0.00 0.00 0.00 81 1057.6
20260903001116 67 274 4.0 8.0 0.00 0.00 0.00 81 1057.6
20260903001104 67 274 4.0 8.0 0.00 0.00 0.00 81 1057.5
20260903001045 67 274 4.0 8.0 0.00 0.00 0.00 81 1057.6
20260903001037 67 272 4.0 8.0 0.00 0.00 0.00 81 1057.6
20260903001029 67 274 4.0 6.0 0.00 0.00 0.00 81 1057.6
20260903001017 67 274 4.0 6.0 0.00 0.00 0.00 81 1057.6
20260903000532 67 274 4.0 7.0 0.00 0.00 0.00 81 1057.6
20260903000211 68 276 4.0 7.0 0.00 0.00 0.00 81 1057.6
20260903000145 68 276 4.0 7.0 0.00 0.00 0.00 81 1057.6
20260903000137 68 276 4.0 7.0 0.00 0.00 0.00 81 1057.5
20260902235904 68 276 4.0 7.0 0.00 0.00 0.00 81 1057.6
20260902235809 68 275 4.0 7.0 0.00 0.00 0.00 81 1057.6
20260902235708 68 275 4.0 7.0 0.00 0.00 0.00 81 1057.6
20260902235610 68 275 4.0 7.0 0.00 0.00 0.00 81 1057.6
20260902235509 68 273 4.0 7.0 0.00 0.00 0.00 81 1057.7
20260902235403 68 273 3.0 7.0 0.00 0.00 0.00 81 1057.7
20260902235308 68 273 3.0 7.0 0.00 0.00 0.00 81 1057.7
20260902235209 68 272 3.0 7.0 0.00 0.00 0.00 81 1057.7
20260902235108 68 272 3.0 7.0 0.00 0.00 0.00 81 1057.7
20260902235008 68 274 3.0 7.0 0.00 0.00 0.00 81 1057.7
20260902234903 68 272 3.0 7.0 0.00 0.00 0.00 81 1057.7
20260902234841 68 272 3.0 7.0 0.00 0.00 0.00 81 1057.7
20260902234833 68 272 3.0 7.0 0.00 0.00 0.00 81 1057.7
20260902234509 68 267 3.0 6.0 0.00 0.00 0.00 81 1057.7
20260902234442 68 267 3.0 6.0 0.00 0.00 0.00 81 1057.8
20260902234436 68 266 3.0 6.0 0.00 0.00 0.00 81 1057.8
20260902234427 68 267 3.0 6.0 0.00 0.00 0.00 81 1057.7
20260902234105 68 267 3.0 6.0 0.00 0.00 0.00 81 1057.7
20260902234006 68 266 3.0 6.0 0.00 0.00 0.00 81 1057.7
20260902233903 68 266 2.0 6.0 0.00 0.00 0.00 81 1057.7
20260902233804 68 262 2.0 4.0 0.00 0.00 0.00 81 1057.7
20260902233705 68 257 2.0 4.0 0.00 0.00 0.00 81 1057.6
20260902233604 68 258 2.0 4.0 0.00 0.00 0.00 81 1057.7
20260902233507 68 258 2.0 4.0 0.00 0.00 0.00 81 1057.6
20260902233412 68 257 2.0 4.0 0.00 0.00 0.00 81 1057.6
20260902233406 68 258 2.0 4.0 0.00 0.00 0.00 81 1057.6
20260902233334 68 257 2.0 4.0 0.00 0.00 0.00 81 1057.6
20260902233327 68 257 2.0 4.0 0.00 0.00 0.00 81 1057.6
20260902233005 68 257 2.0 4.0 0.00 0.00 0.00 81 1057.6
20260902232909 68 257 2.0 4.0 0.00 0.00 0.00 81 1057.6
20260902232856 68 257 2.0 4.0 0.00 0.00 0.00 81 1057.6
20260902232848 68 258 2.0 4.0 0.00 0.00 0.00 81 1057.6
20260902232610 68 258 2.0 4.0 0.00 0.00 0.00 81 1057.6
20260902232556 68 258 2.0 4.0 0.00 0.00 0.00 81 1057.6
20260902232544 68 258 2.0 4.0 0.00 0.00 0.00 81 1057.6
20260902232536 68 258 2.0 4.0 0.00 0.00 0.00 82 1057.6
20260902232524 68 257 2.0 4.0 0.00 0.00 0.00 82 1057.5
20260902232459 68 257 2.0 4.0 0.00 0.00 0.00 82 1057.6
20260902231659 68 257 2.0 4.0 0.00 0.00 0.00 82 1057.5
20260902231558 68 257 2.0 4.0 0.00 0.00 0.00 82 1057.6
20260902231457 68 257 2.0 4.0 0.00 0.00 0.00 82 1057.5
20260902231406 68 257 2.0 4.0 0.00 0.00 0.00 82 1057.5
20260902231354 68 256 2.0 4.0 0.00 0.00 0.00 82 1057.5
20260902231252 68 257 2.0 4.0 0.00 0.00 0.00 83 1057.5
20260902231156 68 257 2.0 6.0 0.00 0.00 0.00 83 1057.5
20260902231051 68 257 2.0 6.0 0.00 0.00 0.00 83 1057.5
20260902231017 68 257 2.0 6.0 0.00 0.00 0.00 83 1057.5
20260902231010 68 257 2.0 6.0 0.00 0.00 0.00 83 1057.5
20260902230648 68 257 3.0 6.0 0.00 0.00 0.00 83 1057.5
20260902230548 68 257 3.0 6.0 0.00 0.00 0.00 83 1057.6
20260902230448 68 257 3.0 6.0 0.00 0.00 0.00 83 1057.5
20260902230404 68 258 3.0 6.0 0.00 0.00 0.00 84 1057.5
20260902230347 68 257 3.0 6.0 0.00 0.00 0.00 84 1057.5
20260902230318 68 257 3.0 6.0 0.00 0.00 0.00 84 1057.5
20260902230309 68 257 3.0 4.0 0.00 0.00 0.00 84 1057.5
20260902230020 68 256 3.0 4.0 0.00 0.00 0.00 84 1057.5
20260902230013 68 257 3.0 4.0 0.00 0.00 0.00 84 1057.5
20260902230005 68 257 3.0 4.0 0.00 0.00 0.00 84 1057.5
20260902225715 68 256 3.0 4.0 0.00 0.00 0.00 84 1057.5
20260902225706 68 256 3.0 4.0 0.00 0.00 0.00 84 1057.4
20260902225404 68 257 3.0 4.0 0.00 0.00 0.00 84 1057.4
20260902225340 68 256 3.0 4.0 0.00 0.00 0.00 84 1057.4
20260902225240 68 256 3.0 4.0 0.00 0.00 0.00 85 1057.4
20260902225140 68 256 3.0 4.0 0.00 0.00 0.00 85 1057.4
20260902225036 68 256 3.0 4.0 0.00 0.00 0.00 85 1057.4
20260902224938 68 256 3.0 4.0 0.00 0.00 0.00 85 1057.4
20260902224929 68 256 3.0 4.0 0.00 0.00 0.00 85 1057.4
20260902224921 69 256 3.0 4.0 0.00 0.00 0.00 85 1057.4
20260902224912 69 257 3.0 4.0 0.00 0.00 0.00 85 1057.4
20260902224903 69 257 3.0 4.0 0.00 0.00 0.00 85 1057.4
20260902224848 69 257 3.0 4.0 0.00 0.00 0.00 85 1057.4
20260902224841 69 256 3.0 4.0 0.00 0.00 0.00 85 1057.4
20260902224833 69 256 3.0 4.0 0.00 0.00 0.00 85 1057.4
20260902224345 69 256 2.0 4.0 0.00 0.00 0.00 85 1057.4
20260902224330 69 256 2.0 4.0 0.00 0.00 0.00 85 1057.4
20260902224103 69 256 2.0 4.0 0.00 0.00 0.00 85 1057.4
20260902223835 69 256 2.0 4.0 0.00 0.00 0.00 85 1057.4
20260902223822 69 256 2.0 4.0 0.00 0.00 0.00 85 1057.4
20260902223550 69 257 3.0 4.0 0.00 0.00 0.00 85 1057.3
20260902223227 69 256 3.0 4.0 0.00 0.00 0.00 85 1057.3
20260902223126 69 256 3.0 4.0 0.00 0.00 0.00 85 1057.3
20260902223025 69 256 3.0 4.0 0.00 0.00 0.00 85 1057.3
20260902222923 69 256 2.0 4.0 0.00 0.00 0.00 85 1057.3
20260902222904 69 257 2.0 4.0 0.00 0.00 0.00 85 1057.3
20260902222823 69 256 2.0 4.0 0.00 0.00 0.00 85 1057.3
20260902222744 69 257 3.0 4.0 0.00 0.00 0.00 85 1057.3
20260902222729 69 256 3.0 4.0 0.00 0.00 0.00 85 1057.3
20260902222715 69 256 3.0 4.0 0.00 0.00 0.00 86 1057.3
20260902222703 69 256 2.0 4.0 0.00 0.00 0.00 86 1057.3
20260902222442 69 256 2.0 4.0 0.00 0.00 0.00 86 1057.3
20260902222147 69 256 2.0 4.0 0.00 0.00 0.00 86 1057.4
20260902222139 69 256 3.0 4.0 0.00 0.00 0.00 86 1057.4
20260902221904 69 256 3.0 4.0 0.00 0.00 0.00 86 1057.4
20260902221839 69 256 3.0 6.0 0.00 0.00 0.00 86 1057.4
20260902221832 69 256 3.0 6.0 0.00 0.00 0.00 86 1057.3
20260902221508 69 256 3.0 6.0 0.00 0.00 0.00 86 1057.3
20260902221405 69 256 3.0 6.0 0.00 0.00 0.00 86 1057.4
20260902221306 69 256 3.0 6.0 0.00 0.00 0.00 86 1057.4
20260902221206 69 256 3.0 6.0 0.00 0.00 0.00 86 1057.4
20260902221105 69 256 3.0 6.0 0.00 0.00 0.00 86 1057.4
20260902221005 69 256 3.0 6.0 0.00 0.00 0.00 86 1057.4
20260902220903 69 256 3.0 6.0 0.00 0.00 0.00 86 1057.4
20260902220804 69 256 3.0 5.0 0.00 0.00 0.00 86 1057.3
20260902220743 69 255 3.0 5.0 0.00 0.00 0.00 86 1057.4
20260902220735 69 251 3.0 5.0 0.00 0.00 0.00 86 1057.4
20260902220452 69 249 3.0 5.0 0.00 0.00 0.00 86 1057.3
20260902220438 69 249 3.0 5.0 0.00 0.00 0.00 86 1057.3
20260902220215 69 249 3.0 5.0 0.00 0.00 0.00 86 1057.3
20260902220201 69 248 3.0 5.0 0.00 0.00 0.00 86 1057.4
20260902220145 69 247 3.0 4.0 0.00 0.00 0.00 86 1057.4
20260902215603 69 246 3.0 4.0 0.00 0.00 0.00 87 1057.5
20260902215503 69 246 3.0 5.0 0.00 0.00 0.00 87 1057.5
20260902215446 69 246 3.0 5.0 0.00 0.00 0.00 87 1057.5
20260902215436 69 246 3.0 5.0 0.00 0.00 0.00 87 1057.5
20260902215427 69 246 3.0 5.0 0.00 0.00 0.00 87 1057.5
20260902215417 69 246 3.0 5.0 0.00 0.00 0.00 87 1057.4
20260902214932 69 246 3.0 5.0 0.00 0.00 0.00 87 1057.5
20260902214918 69 245 2.0 5.0 0.00 0.00 0.00 87 1057.5
20260902214907 69 245 2.0 5.0 0.00 0.00 0.00 87 1057.5
20260902214635 69 245 2.0 4.0 0.00 0.00 0.00 88 1057.5
20260902214359 69 245 2.0 5.0 0.00 0.00 0.00 88 1057.5
20260902214258 69 245 2.0 5.0 0.00 0.00 0.00 87 1057.5
20260902214200 69 224 2.0 5.0 0.00 0.00 0.00 87 1057.5
20260902214059 70 224 2.0 5.0 0.00 0.00 0.00 87 1057.4
20260902213957 70 224 2.0 5.0 0.00 0.00 0.00 87 1057.5
20260902213906 70 224 2.0 5.0 0.00 0.00 0.00 87 1057.5
20260902213855 70 225 2.0 5.0 0.00 0.00 0.00 87 1057.5
20260902213755 70 224 2.0 5.0 0.00 0.00 0.00 87 1057.5
20260902213655 70 224 2.0 5.0 0.00 0.00 0.00 87 1057.5
20260902213555 70 224 2.0 5.0 0.00 0.00 0.00 87 1057.4
20260902213456 70 224 2.0 4.0 0.00 0.00 0.00 87 1057.4
20260902213406 70 224 2.0 4.0 0.00 0.00 0.00 87 1057.4
20260902213355 70 224 2.0 4.0 0.00 0.00 0.00 87 1057.4
20260902213300 70 224 2.0 4.0 0.00 0.00 0.00 87 1057.4
20260902213151 70 220 2.0 3.0 0.00 0.00 0.00 87 1057.4
20260902213137 70 220 2.0 3.0 0.00 0.00 0.00 87 1057.4
20260902213123 70 220 2.0 3.0 0.00 0.00 0.00 87 1057.4
20260902212849 70 220 2.0 3.0 0.00 0.00 0.00 87 1057.4
20260902212747 70 220 2.0 3.0 0.00 0.00 0.00 87 1057.4
20260902212647 70 220 2.0 3.0 0.00 0.00 0.00 88 1057.5
20260902212547 70 220 2.0 3.0 0.00 0.00 0.00 88 1057.5
20260902212447 70 220 2.0 3.0 0.00 0.00 0.00 88 1057.5
20260902212403 70 221 2.0 3.0 0.00 0.00 0.00 88 1057.4
20260902212347 70 220 2.0 3.0 0.00 0.00 0.00 88 1057.4
20260902212246 70 220 2.0 3.0 0.00 0.00 0.00 88 1057.5
20260902212215 70 220 2.0 3.0 0.00 0.00 0.00 88 1057.5
20260902212203 70 220 2.0 3.0 0.00 0.00 0.00 88 1057.5
20260902212147 70 220 2.0 3.0 0.00 0.00 0.00 88 1057.5
20260902212135 71 220 2.0 3.0 0.00 0.00 0.00 88 1057.5
20260902211909 71 220 2.0 3.0 0.00 0.00 0.00 88 1057.4
20260902211903 71 220 2.0 3.0 0.00 0.00 0.00 88 1057.4
20260902211852 71 222 2.0 3.0 0.00 0.00 0.00 88 1057.4
20260902211341 71 220 2.0 3.0 0.00 0.00 0.00 88 1057.4
20260902211241 71 220 2.0 3.0 0.00 0.00 0.00 88 1057.4
20260902211141 71 220 2.0 3.0 0.00 0.00 0.00 88 1057.4
20260902211041 71 220 2.0 3.0 0.00 0.00 0.00 88 1057.4
20260902210943 71 220 2.0 3.0 0.00 0.00 0.00 88 1057.4
20260902210904 71 219 2.0 3.0 0.00 0.00 0.00 88 1057.4
20260902210841 71 220 2.0 3.0 0.00 0.00 0.00 88 1057.4
20260902210807 71 220 2.0 3.0 0.00 0.00 0.00 88 1057.4
20260902210759 71 220 2.0 3.0 0.00 0.00 0.00 88 1057.4
20260902210509 71 220 2.0 3.0 0.00 0.00 0.00 88 1057.4
20260902210501 71 219 2.0 3.0 0.00 0.00 0.00 88 1057.4
20260902210453 71 220 2.0 3.0 0.00 0.00 0.00 88 1057.4
20260902210133 71 220 2.0 2.0 0.00 0.00 0.00 88 1057.4
20260902210034 71 220 2.0 3.0 0.00 0.00 0.00 88 1057.4
20260902205934 71 220 2.0 3.0 0.00 0.00 0.00 88 1057.3
20260902205904 71 220 2.0 3.0 0.00 0.00 0.00 87 1057.4
20260902205833 71 220 2.0 3.0 0.00 0.00 0.00 87 1057.4
20260902205733 71 220 2.0 3.0 0.00 0.00 0.00 87 1057.4
20260902205648 71 220 2.0 3.0 0.00 0.00 0.00 87 1057.4
20260902205638 71 219 2.0 3.0 0.00 0.00 0.00 87 1057.4
20260902205625 71 219 2.0 3.0 0.00 0.00 0.00 87 1057.4
20260902205335 71 220 1.0 3.0 0.00 0.00 0.00 87 1057.4
20260902205233 72 220 1.0 3.0 0.00 0.00 0.00 87 1057.4
20260902205133 72 220 1.0 3.0 0.00 0.00 0.00 87 1057.4
20260902205035 72 220 1.0 3.0 0.00 0.00 0.00 87 1057.4
20260902204936 72 220 1.0 2.0 0.00 0.00 0.00 87 1057.4
20260902204904 72 220 1.0 2.0 0.00 0.00 0.00 87 1057.4
20260902204839 72 221 1.0 2.0 0.00 0.00 0.00 87 1057.4
20260902204738 72 220 1.0 2.0 0.00 0.00 0.00 87 1057.3
20260902204634 72 220 1.0 2.0 0.00 0.00 0.00 87 1057.3
20260902204534 72 220 1.0 2.0 0.00 0.00 0.00 86 1057.3
20260902204435 72 220 1.0 2.0 0.00 0.00 0.00 86 1057.3
20260902204404 72 220 1.0 2.0 0.00 0.00 0.00 86 1057.3
20260902204333 72 220 1.0 2.0 0.00 0.00 0.00 86 1057.3
20260902204240 72 220 1.0 2.0 0.00 0.00 0.00 86 1057.3
20260902204230 72 220 1.0 2.0 0.00 0.00 0.00 86 1057.3
20260902204219 72 220 1.0 2.0 0.00 0.00 0.00 86 1057.3
20260902204207 72 220 1.0 2.0 0.00 0.00 0.00 86 1057.3
20260902203944 72 220 1.0 2.0 0.00 0.00 0.00 86 1057.3
20260902203927 72 220 1.0 2.0 0.00 0.00 0.00 87 1057.3
20260902203918 72 220 1.0 2.0 0.00 0.00 0.00 87 1057.3
20260902203644 72 220 2.0 2.0 0.00 0.00 0.00 87 1057.3
20260902203418 72 220 2.0 2.0 0.00 0.00 0.00 86 1057.3
20260902203406 72 220 2.0 2.0 0.00 0.00 0.00 86 1057.3
20260902203355 72 220 1.0 2.0 0.00 0.00 0.00 86 1057.2
20260902203121 73 220 1.0 2.0 0.00 0.00 0.00 86 1057.2
20260902203105 73 220 1.0 2.0 0.00 0.00 0.00 86 1057.2
20260902202834 73 220 1.0 2.0 0.00 0.00 0.00 86 1057.2
20260902202823 73 220 1.0 2.0 0.00 0.00 0.00 86 1057.2
20260902202556 73 220 1.0 2.0 0.00 0.00 0.00 86 1057.2
20260902202229 73 220 1.0 3.0 0.00 0.00 0.00 86 1057.2
20260902202129 73 220 1.0 3.0 0.00 0.00 0.00 86 1057.2
20260902202029 73 220 1.0 3.0 0.00 0.00 0.00 86 1057.2
20260902201929 73 220 1.0 3.0 0.00 0.00 0.00 85 1057.2
20260902201901 73 220 1.0 3.0 0.00 0.00 0.00 85 1057.1
20260902201828 73 220 1.0 3.0 0.00 0.00 0.00 85 1057.1
20260902201729 73 220 1.0 3.0 0.00 0.00 0.00 85 1057.1
20260902201650 73 220 1.0 3.0 0.00 0.00 0.00 85 1057.2
20260902201641 73 220 1.0 3.0 0.00 0.00 0.00 85 1057.2
20260902201626 73 220 1.0 3.0 0.00 0.00 0.00 85 1057.2
20260902201609 73 220 1.0 3.0 0.00 0.00 0.00 85 1057.2
20260902201341 73 220 1.0 3.0 0.00 0.00 0.00 85 1057.2
20260902201113 74 219 1.0 2.0 0.00 0.00 0.00 85 1057.1
20260902201052 74 219 1.0 2.0 0.00 0.00 0.00 85 1057.1
20260902201040 74 218 1.0 2.0 0.00 0.00 0.00 85 1057.1
20260902201032 74 219 1.0 2.0 0.00 0.00 0.00 84 1057.1
20260902200803 74 219 1.0 2.0 0.00 0.00 0.00 84 1057.0
20260902200754 74 219 0.0 2.0 0.00 0.00 0.00 84 1057.0
20260902200748 74 218 0.0 2.0 0.00 0.00 0.00 84 1057.0
20260902200730 74 219 0.0 2.0 0.00 0.00 0.00 84 1057.0
20260902200719 74 219 0.0 2.0 0.00 0.00 0.00 84 1057.0
20260902200435 74 219 0.0 0.0 0.00 0.00 0.00 84 1057.0
20260902195626 74 218 0.0 0.0 0.00 0.00 0.00 84 1057.0
20260902195525 74 218 0.0 0.0 0.00 0.00 0.00 84 1057.0
20260902195425 74 219 0.0 0.0 0.00 0.00 0.00 84 1057.0
20260902195403 74 219 0.0 0.0 0.00 0.00 0.00 84 1056.9
20260902195325 74 218 0.0 0.0 0.00 0.00 0.00 84 1056.9
20260902195225 74 219 0.0 0.0 0.00 0.00 0.00 84 1056.9
20260902195125 74 219 0.0 0.0 0.00 0.00 0.00 84 1057.0
20260902195045 75 219 0.0 0.0 0.00 0.00 0.00 84 1056.9
20260902195026 75 219 0.0 0.0 0.00 0.00 0.00 84 1056.9
20260902195016 75 219 0.0 0.0 0.00 0.00 0.00 84 1056.9
20260902195005 75 218 0.0 0.0 0.00 0.00 0.00 84 1056.9
20260902194625 75 219 0.0 0.0 0.00 0.00 0.00 83 1056.9
20260902194525 75 218 0.0 0.0 0.00 0.00 0.00 83 1056.8
20260902194446 75 219 0.0 0.0 0.00 0.00 0.00 83 1056.8
20260902194439 75 219 0.0 0.0 0.00 0.00 0.00 83 1056.7
20260902194431 75 218 0.0 1.0 0.00 0.00 0.00 83 1056.7
20260902194418 75 219 0.0 1.0 0.00 0.00 0.00 83 1056.8
20260902194149 75 218 0.0 1.0 0.00 0.00 0.00 82 1056.8
20260902193901 75 219 0.0 1.0 0.00 0.00 0.00 82 1056.7
20260902193825 75 219 0.0 1.0 0.00 0.00 0.00 82 1056.7
20260902193730 76 219 0.0 1.0 0.00 0.00 0.00 82 1056.8
20260902193643 76 218 0.0 3.0 0.00 0.00 0.00 82 1056.8
20260902193629 76 219 0.0 3.0 0.00 0.00 0.00 82 1056.8
20260902193615 76 219 0.0 3.0 0.00 0.00 0.00 82 1056.8
20260902193607 76 219 0.0 3.0 0.00 0.00 0.00 82 1056.8
20260902193340 76 219 0.0 3.0 0.00 0.00 0.00 82 1056.8
20260902193022 76 219 0.0 3.0 0.00 0.00 0.00 82 1056.6
20260902192916 76 219 0.0 3.0 0.00 0.00 0.00 82 1056.6
20260902192859 76 219 0.0 3.0 0.00 0.00 0.00 82 1056.5
20260902192814 76 219 0.0 3.0 0.00 0.00 0.00 82 1056.5
20260902192729 76 219 0.0 3.0 0.00 0.00 0.00 82 1056.5
20260902192722 76 218 0.0 1.0 0.00 0.00 0.00 81 1056.5
20260902192709 76 219 0.0 1.0 0.00 0.00 0.00 81 1056.5
20260902192657 76 219 0.0 1.0 0.00 0.00 0.00 81 1056.4
20260902192649 76 219 0.0 1.0 0.00 0.00 0.00 81 1056.4
20260902192109 76 219 0.0 1.0 0.00 0.00 0.00 81 1056.4
20260902192009 77 219 0.0 0.0 0.00 0.00 0.00 81 1056.4
20260902191908 77 218 0.0 0.0 0.00 0.00 0.00 81 1056.3
20260902191857 77 219 0.0 0.0 0.00 0.00 0.00 81 1056.3
20260902191807 77 219 0.0 0.0 0.00 0.00 0.00 81 1056.3
20260902191704 77 219 0.0 0.0 0.00 0.00 0.00 81 1056.3
20260902191604 77 219 0.0 0.0 0.00 0.00 0.00 81 1056.3
20260902191504 77 219 0.0 0.0 0.00 0.00 0.00 81 1056.3
20260902191420 77 219 0.0 0.0 0.00 0.00 0.00 81 1056.3
20260902191413 77 219 0.0 0.0 0.00 0.00 0.00 81 1056.3
20260902191405 77 219 0.0 1.0 0.00 0.00 0.00 81 1056.3
20260902191353 77 218 0.0 2.0 0.00 0.00 0.00 81 1056.2
20260902191127 77 219 1.0 3.0 0.00 0.00 0.00 80 1056.2
20260902191111 77 219 1.0 3.0 0.00 0.00 0.00 80 1056.2
20260902190801 77 219 1.0 5.0 0.00 0.00 0.00 80 1056.2
20260902190703 77 219 2.0 5.0 0.00 0.00 0.00 80 1056.2
20260902190603 77 219 2.0 5.0 0.00 0.00 0.00 80 1056.2
20260902190502 77 219 2.0 5.0 0.00 0.00 0.00 80 1056.2
20260902190443 77 218 2.0 5.0 0.00 0.00 0.00 80 1056.2
20260902190428 77 219 2.0 5.0 0.00 0.00 0.00 80 1056.2
20260902190105 78 219 3.0 5.0 0.00 0.00 0.00 80 1056.2
20260902190040 78 219 3.0 7.0 0.00 0.00 0.00 80 1056.2
20260902190024 78 219 3.0 7.0 0.00 0.00 0.00 80 1056.2
20260902185700 78 219 3.0 7.0 0.00 0.00 0.00 80 1056.2
20260902185629 78 218 3.0 7.0 0.00 0.00 0.00 80 1056.2
20260902185620 78 237 3.0 7.0 0.00 0.00 0.00 80 1056.2
20260902185343 78 237 3.0 7.0 0.00 0.00 0.00 79 1056.2
20260902185255 78 237 3.0 7.0 0.00 0.00 0.00 79 1056.2
20260902185153 78 237 3.0 7.0 0.00 0.00 0.00 79 1056.2
20260902185051 78 239 3.0 7.0 0.00 0.00 0.00 79 1056.2
20260902184952 78 236 3.0 6.0 0.00 0.00 0.00 79 1056.2
20260902184852 78 237 2.0 5.0 0.00 0.00 0.00 79 1056.1
20260902184843 78 222 2.0 5.0 0.00 0.00 0.00 79 1056.1
20260902184825 78 186 2.0 5.0 0.00 0.00 0.00 79 1056.1
20260902184815 78 186 2.0 5.0 0.00 0.00 0.00 79 1056.1
20260902184803 78 185 2.0 5.0 0.00 0.00 0.00 79 1056.1
20260902184531 78 191 1.0 5.0 0.00 0.00 0.00 79 1056.1
20260902184525 78 199 1.0 5.0 0.00 0.00 0.00 79 1056.1
20260902184516 78 199 1.0 5.0 0.00 0.00 0.00 78 1056.1
20260902184506 78 199 1.0 4.0 0.00 0.00 0.00 78 1056.1
20260902184454 78 199 1.0 4.0 0.00 0.00 0.00 78 1056.1
20260902184221 78 201 2.0 7.0 0.00 0.00 0.00 78 1056.1
20260902183641 78 201 2.0 7.0 0.00 0.00 0.00 78 1056.0
20260902183625 78 201 2.0 7.0 0.00 0.00 0.00 78 1056.0
20260902183616 78 201 3.0 7.0 0.00 0.00 0.00 78 1056.0
20260902183341 78 200 3.0 7.0 0.00 0.00 0.00 78 1055.8
20260902183242 78 201 3.0 7.0 0.00 0.00 0.00 78 1055.8
20260902183202 78 192 3.0 7.0 0.00 0.00 0.00 78 1055.8
20260902183154 78 192 3.0 7.0 0.00 0.00 0.00 77 1055.8
20260902183141 79 191 3.0 7.0 0.00 0.00 0.00 77 1055.8
20260902182914 79 206 2.0 7.0 0.00 0.00 0.00 77 1055.8
20260902182904 79 228 3.0 7.0 0.00 0.00 0.00 77 1055.8
20260902182539 79 192 2.0 7.0 0.00 0.00 0.00 77 1055.8
20260902182437 79 191 3.0 7.0 0.00 0.00 0.00 77 1055.8
20260902182358 79 247 3.0 7.0 0.00 0.00 0.00 77 1055.8
20260902182350 79 247 3.0 7.0 0.00 0.00 0.00 77 1055.8
20260902182337 79 243 3.0 9.0 0.00 0.00 0.00 77 1055.8
20260902182111 79 176 4.0 9.0 0.00 0.00 0.00 76 1055.8
20260902182059 79 178 4.0 9.0 0.00 0.00 0.00 76 1055.8
20260902181731 79 216 3.0 9.0 0.00 0.00 0.00 76 1055.7
20260902181631 79 158 3.0 9.0 0.00 0.00 0.00 76 1055.7
20260902181530 79 156 3.0 9.0 0.00 0.00 0.00 76 1055.8
20260902181430 79 177 3.0 9.0 0.00 0.00 0.00 75 1055.8
20260902181344 79 234 3.0 9.0 0.00 0.00 0.00 75 1055.8
20260902181332 79 237 3.0 9.0 0.00 0.00 0.00 75 1055.8
20260902181318 80 199 3.0 9.0 0.00 0.00 0.00 75 1055.8
20260902181308 80 191 3.0 9.0 0.00 0.00 0.00 75 1055.8
20260902181258 80 275 3.0 9.0 0.00 0.00 0.00 75 1055.8
20260902181249 80 271 3.0 9.0 0.00 0.00 0.00 75 1055.8
20260902181235 80 182 4.0 9.0 0.00 0.00 0.00 74 1055.8
20260902181002 80 182 4.0 9.0 0.00 0.00 0.00 74 1055.8
20260902180423 80 214 4.0 9.0 0.00 0.00 0.00 74 1055.8
20260902180337 80 189 4.0 9.0 0.00 0.00 0.00 74 1055.8
20260902180324 80 192 4.0 9.0 0.00 0.00 0.00 74 1055.8
20260902180223 80 208 4.0 8.0 0.00 0.00 0.00 73 1055.7
20260902180121 80 222 4.0 8.0 0.00 0.00 0.00 73 1055.7
20260902180031 80 222 4.0 10.0 0.00 0.00 0.00 73 1055.8
20260902180000 80 169 4.0 10.0 0.00 0.00 0.00 73 1055.7
20260902175943 80 230 4.0 10.0 0.00 0.00 0.00 73 1055.7
20260902175621 80 212 4.0 10.0 0.00 0.00 0.00 73 1055.7
20260902175520 81 227 5.0 10.0 0.00 0.00 0.00 73 1055.7
20260902175420 81 199 5.0 10.0 0.00 0.00 0.00 72 1055.7
20260902175339 81 200 5.0 10.0 0.00 0.00 0.00 72 1055.7
20260902175318 81 224 5.0 10.0 0.00 0.00 0.00 72 1055.7
20260902175217 81 238 4.0 10.0 0.00 0.00 0.00 72 1055.7
20260902175119 81 183 5.0 10.0 0.00 0.00 0.00 72 1055.7
20260902175111 81 197 4.0 8.0 0.00 0.00 0.00 72 1055.7
20260902175057 81 215 4.0 8.0 0.00 0.00 0.00 72 1055.7
20260902174818 81 204 4.0 7.0 0.00 0.00 0.00 72 1055.7
20260902174719 81 218 3.0 7.0 0.00 0.00 0.00 72 1055.7
20260902174618 81 213 4.0 7.0 0.00 0.00 0.00 71 1055.7
20260902174517 81 225 4.0 8.0 0.00 0.00 0.00 71 1055.7
20260902174411 81 266 4.0 8.0 0.00 0.00 0.00 71 1055.7
20260902174335 81 206 4.0 8.0 0.00 0.00 0.00 71 1055.7
20260902174311 82 202 4.0 8.0 0.00 0.00 0.00 71 1055.7
20260902174211 82 203 4.0 8.0 0.00 0.00 0.00 71 1055.6
20260902174122 82 182 3.0 8.0 0.00 0.00 0.00 71 1055.6
20260902174112 82 197 3.0 8.0 0.00 0.00 0.00 71 1055.6
20260902174059 82 183 3.0 8.0 0.00 0.00 0.00 71 1055.6
20260902173832 82 177 4.0 9.0 0.00 0.00 0.00 71 1055.6
20260902173823 82 175 4.0 9.0 0.00 0.00 0.00 71 1055.6
20260902173810 82 193 4.0 9.0 0.00 0.00 0.00 71 1055.6
20260902173803 82 201 4.0 9.0 0.00 0.00 0.00 70 1055.6
20260902173753 82 216 5.0 9.0 0.00 0.00 0.00 70 1055.6
20260902173211 82 226 5.0 9.0 0.00 0.00 0.00 70 1055.5
20260902173111 82 229 5.0 9.0 0.00 0.00 0.00 70 1055.6
20260902173012 82 221 6.0 9.0 0.00 0.00 0.00 70 1055.6
20260902172910 82 221 6.0 10.0 0.00 0.00 0.00 70 1055.6
20260902172857 82 205 6.0 10.0 0.00 0.00 0.00 70 1055.6
20260902172850 82 187 6.0 10.0 0.00 0.00 0.00 69 1055.6
20260902172842 82 215 6.0 10.0 0.00 0.00 0.00 69 1055.6
20260902172834 83 239 6.0 10.0 0.00 0.00 0.00 69 1055.6
20260902172820 83 181 6.0 10.0 0.00 0.00 0.00 69 1055.6
20260902172308 83 168 5.0 10.0 0.00 0.00 0.00 68 1055.6
20260902172202 83 186 5.0 10.0 0.00 0.00 0.00 68 1055.5
20260902172103 83 230 4.0 10.0 0.00 0.00 0.00 68 1055.5
20260902172002 83 207 4.0 10.0 0.00 0.00 0.00 68 1055.5
20260902171902 83 189 4.0 10.0 0.00 0.00 0.00 67 1055.5
20260902171832 83 189 4.0 10.0 0.00 0.00 0.00 67 1055.5
20260902171802 83 207 3.0 10.0 0.00 0.00 0.00 67 1055.5
20260902171701 83 192 3.0 10.0 0.00 0.00 0.00 67 1055.5
20260902171601 83 207 3.0 10.0 0.00 0.00 0.00 67 1055.5
20260902171501 83 270 3.0 9.0 0.00 0.00 0.00 67 1055.5
20260902171404 84 205 4.0 9.0 0.00 0.00 0.00 67 1055.5
20260902171333 84 185 4.0 9.0 0.00 0.00 0.00 66 1055.5
20260902171301 84 185 4.0 9.0 0.00 0.00 0.00 66 1055.5
20260902171201 84 185 4.0 9.0 0.00 0.00 0.00 66 1055.4
20260902171101 84 185 4.0 9.0 0.00 0.00 0.00 66 1055.4
20260902171000 84 184 4.0 9.0 0.00 0.00 0.00 66 1055.4
20260902170834 84 184 4.0 9.0 0.00 0.00 0.00 66 1055.4
20260902170800 84 183 3.0 9.0 0.00 0.00 0.00 66 1055.4
20260902170700 84 228 3.0 9.0 0.00 0.00 0.00 66 1055.4
20260902170636 84 220 3.0 9.0 0.00 0.00 0.00 66 1055.4
20260902170620 84 218 3.0 9.0 0.00 0.00 0.00 66 1055.4
20260902170606 84 163 3.0 9.0 0.00 0.00 0.00 66 1055.4
20260902170328 84 208 3.0 9.0 0.00 0.00 0.00 66 1055.4
20260902170320 84 244 3.0 9.0 0.00 0.00 0.00 66 1055.4
20260902165954 84 182 4.0 9.0 0.00 0.00 0.00 66 1055.4
20260902165854 84 181 5.0 11.0 0.00 0.00 0.00 66 1055.4
20260902165837 84 177 5.0 11.0 0.00 0.00 0.00 66 1055.4
20260902165826 84 177 6.0 11.0 0.00 0.00 0.00 66 1055.3
20260902165818 84 177 6.0 11.0 0.00 0.00 0.00 66 1055.3
20260902165452 84 206 6.0 11.0 0.00 0.00 0.00 65 1055.3
20260902165352 84 201 6.0 11.0 0.00 0.00 0.00 65 1055.3
20260902165334 84 208 6.0 11.0 0.00 0.00 0.00 65 1055.3
20260902165323 84 185 6.0 11.0 0.00 0.00 0.00 65 1055.3
20260902165316 84 217 5.0 11.0 0.00 0.00 0.00 65 1055.4
20260902165308 84 223 5.0 11.0 0.00 0.00 0.00 65 1055.3
20260902165030 85 218 5.0 14.0 0.00 0.00 0.00 64 1055.3
20260902165013 85 241 5.0 14.0 0.00 0.00 0.00 64 1055.3
20260902164646 85 187 5.0 14.0 0.00 0.00 0.00 64 1055.3
20260902164546 85 224 6.0 14.0 0.00 0.00 0.00 64 1055.3
20260902164446 85 220 6.0 14.0 0.00 0.00 0.00 64 1055.4
20260902164332 85 193 6.0 14.0 0.00 0.00 0.00 63 1055.3
20260902164240 85 158 6.0 14.0 0.00 0.00 0.00 63 1055.3
20260902164140 85 199 7.0 14.0 0.00 0.00 0.00 63 1055.3
20260902164040 85 245 7.0 14.0 0.00 0.00 0.00 63 1055.3
20260902163940 85 228 7.0 14.0 0.00 0.00 0.00 62 1055.3
20260902163924 85 214 7.0 11.0 0.00 0.00 0.00 62 1055.3
20260902163920 85 188 7.0 11.0 0.00 0.00 0.00 62 1055.3
20260902163909 86 225 7.0 11.0 0.00 0.00 0.00 62 1055.3
20260902163636 86 209 6.0 10.0 0.00 0.00 0.00 62 1055.4
20260902163623 86 175 6.0 10.0 0.00 0.00 0.00 62 1055.4
20260902163355 86 203 7.0 12.0 0.00 0.00 0.00 61 1055.4
20260902163345 86 203 7.0 12.0 0.00 0.00 0.00 61 1055.4
20260902163333 86 177 6.0 12.0 0.00 0.00 0.00 61 1055.3
20260902163322 86 231 6.0 12.0 0.00 0.00 0.00 61 1055.3
20260902162835 86 235 6.0 12.0 0.00 0.00 0.00 61 1055.3
20260902162730 86 199 6.0 12.0 0.00 0.00 0.00 61 1055.4
20260902162629 86 195 6.0 12.0 0.00 0.00 0.00 61 1055.4
20260902162529 86 212 5.0 12.0 0.00 0.00 0.00 61 1055.3
20260902162428 86 201 5.0 12.0 0.00 0.00 0.00 61 1055.4
20260902162403 86 206 5.0 11.0 0.00 0.00 0.00 61 1055.3
20260902162355 86 262 5.0 10.0 0.00 0.00 0.00 61 1055.3
20260902162028 86 222 5.0 10.0 0.00 0.00 0.00 60 1055.3
20260902161926 86 246 5.0 10.0 0.00 0.00 0.00 60 1055.3
20260902161840 86 205 5.0 10.0 0.00 0.00 0.00 59 1055.3
20260902161824 86 206 5.0 10.0 0.00 0.00 0.00 59 1055.3
20260902161724 86 161 5.0 10.0 0.00 0.00 0.00 59 1055.3
20260902161653 86 199 5.0 10.0 0.00 0.00 0.00 59 1055.3
20260902161644 86 194 5.0 10.0 0.00 0.00 0.00 59 1055.3
20260902161332 86 229 5.0 10.0 0.00 0.00 0.00 60 1055.3
20260902161318 86 223 5.0 10.0 0.00 0.00 0.00 60 1055.3
20260902161300 86 220 5.0 10.0 0.00 0.00 0.00 61 1055.3
20260902161252 86 232 5.0 11.0 0.00 0.00 0.00 60 1055.4
20260902161021 86 212 5.0 11.0 0.00 0.00 0.00 60 1055.3
20260902160957 86 212 5.0 11.0 0.00 0.00 0.00 60 1055.3
20260902160947 86 226 5.0 11.0 0.00 0.00 0.00 60 1055.3
20260902160720 86 222 4.0 11.0 0.00 0.00 0.00 59 1055.4
20260902160442 86 233 3.0 11.0 0.00 0.00 0.00 58 1055.3
20260902160431 86 235 3.0 11.0 0.00 0.00 0.00 58 1055.3
20260902160109 86 184 3.0 7.0 0.00 0.00 0.00 57 1055.4
20260902160009 86 223 3.0 7.0 0.00 0.00 0.00 56 1055.4
20260902155949 86 130 3.0 7.0 0.00 0.00 0.00 57 1055.4
20260902155940 86 127 3.0 7.0 0.00 0.00 0.00 56 1055.4
20260902155931 86 126 3.0 7.0 0.00 0.00 0.00 56 1055.4
20260902155606 86 185 3.0 7.0 0.00 0.00 0.00 56 1055.4
20260902155505 86 178 4.0 7.0 0.00 0.00 0.00 56 1055.4
20260902155406 87 157 4.0 8.0 0.00 0.00 0.00 55 1055.4
20260902155332 86 159 4.0 9.0 0.00 0.00 0.00 56 1055.4
20260902155306 86 77 4.0 9.0 0.00 0.00 0.00 56 1055.3
20260902155204 87 216 4.0 9.0 0.00 0.00 0.00 56 1055.3
20260902155102 87 214 5.0 9.0 0.00 0.00 0.00 55 1055.3
20260902155016 87 215 4.0 9.0 0.00 0.00 0.00 56 1055.4
20260902154908 87 185 4.0 9.0 0.00 0.00 0.00 55 1055.4
20260902154859 87 206 4.0 9.0 0.00 0.00 0.00 55 1055.4
20260902154846 87 208 4.0 9.0 0.00 0.00 0.00 55 1055.3
20260902154838 87 208 4.0 9.0 0.00 0.00 0.00 55 1055.3
20260902154605 87 170 4.0 9.0 0.00 0.00 0.00 54 1055.4
20260902154550 87 167 4.0 9.0 0.00 0.00 0.00 54 1055.4
20260902154301 87 193 4.0 9.0 0.00 0.00 0.00 54 1055.3
20260902154201 87 191 4.0 9.0 0.00 0.00 0.00 54 1055.3
20260902154101 87 242 3.0 9.0 0.00 0.00 0.00 54 1055.3
20260902154001 87 210 4.0 7.0 0.00 0.00 0.00 54 1055.3
20260902153832 86 210 4.0 7.0 0.00 0.00 0.00 53 1055.3
20260902153759 86 243 4.0 7.0 0.00 0.00 0.00 53 1055.3
20260902153659 86 248 4.0 10.0 0.00 0.00 0.00 54 1055.4
20260902153559 86 229 4.0 10.0 0.00 0.00 0.00 54 1055.4
20260902153458 86 204 4.0 10.0 0.00 0.00 0.00 54 1055.3
20260902153358 86 162 4.0 10.0 0.00 0.00 0.00 53 1055.4
20260902153332 86 219 4.0 10.0 0.00 0.00 0.00 53 1055.4
20260902153255 86 222 4.0 10.0 0.00 0.00 0.00 53 1055.4
20260902153153 86 200 5.0 10.0 0.00 0.00 0.00 54 1055.4
20260902153053 86 186 5.0 11.0 0.00 0.00 0.00 54 1055.4
20260902153002 86 159 5.0 11.0 0.00 0.00 0.00 54 1055.4
20260902152947 86 198 5.0 11.0 0.00 0.00 0.00 53 1055.4
20260902152938 86 212 5.0 11.0 0.00 0.00 0.00 53 1055.4
20260902152929 86 212 4.0 11.0 0.00 0.00 0.00 53 1055.4
20260902152919 87 162 4.0 11.0 0.00 0.00 0.00 54 1055.4
20260902152911 87 140 5.0 11.0 0.00 0.00 0.00 54 1055.3
20260902152634 87 141 5.0 11.0 0.00 0.00 0.00 53 1055.4
20260902152411 87 160 5.0 11.0 0.00 0.00 0.00 52 1055.4
20260902152359 87 150 5.0 11.0 0.00 0.00 0.00 52 1055.4
20260902152349 87 122 5.0 10.0 0.00 0.00 0.00 52 1055.4
20260902152340 87 110 5.0 10.0 0.00 0.00 0.00 52 1055.4
20260902152330 87 217 5.0 10.0 0.00 0.00 0.00 52 1055.4
20260902152108 87 232 5.0 10.0 0.00 0.00 0.00 52 1055.4
20260902151615 87 201 4.0 9.0 0.00 0.00 0.00 52 1055.4
20260902151559 87 218 4.0 9.0 0.00 0.00 0.00 52 1055.4
20260902151336 87 268 4.0 9.0 0.00 0.00 0.00 52 1055.4
20260902151328 87 189 4.0 9.0 0.00 0.00 0.00 52 1055.4
20260902151320 87 191 4.0 9.0 0.00 0.00 0.00 51 1055.4
20260902151311 87 222 5.0 10.0 0.00 0.00 0.00 51 1055.4
20260902150730 87 193 5.0 13.0 0.00 0.00 0.00 52 1055.4
20260902150630 87 201 5.0 13.0 0.00 0.00 0.00 53 1055.4
20260902150530 87 203 5.0 13.0 0.00 0.00 0.00 52 1055.4
20260902150515 87 151 5.0 13.0 0.00 0.00 0.00 52 1055.4
20260902150455 87 202 5.0 13.0 0.00 0.00 0.00 52 1055.4
20260902150203 87 195 6.0 13.0 0.00 0.00 0.00 51 1055.4
20260902150155 87 226 6.0 13.0 0.00 0.00 0.00 51 1055.4
20260902145834 87 133 4.0 10.0 0.00 0.00 0.00 51 1055.4
20260902145829 87 136 4.0 10.0 0.00 0.00 0.00 51 1055.4
20260902145729 87 125 4.0 10.0 0.00 0.00 0.00 51 1055.4
20260902145629 87 70 4.0 10.0 0.00 0.00 0.00 51 1055.5
20260902145528 87 213 4.0 10.0 0.00 0.00 0.00 51 1055.5
20260902145427 87 233 4.0 10.0 0.00 0.00 0.00 51 1055.4
20260902145401 87 165 4.0 10.0 0.00 0.00 0.00 51 1055.5
20260902145351 87 197 4.0 10.0 0.00 0.00 0.00 51 1055.5
20260902145118 87 192 4.0 10.0 0.00 0.00 0.00 51 1055.5
20260902145106 87 190 4.0 10.0 0.00 0.00 0.00 50 1055.4
20260902145049 87 162 4.0 10.0 0.00 0.00 0.00 50 1055.5
20260902144726 87 135 4.0 10.0 0.00 0.00 0.00 50 1055.5
20260902144625 87 114 4.0 10.0 0.00 0.00 0.00 50 1055.4
20260902144525 87 75 4.0 10.0 0.00 0.00 0.00 51 1055.5
20260902144425 87 123 4.0 10.0 0.00 0.00 0.00 51 1055.5
20260902144327 87 196 4.0 8.0 0.00 0.00 0.00 50 1055.5
20260902144223 87 220 4.0 8.0 0.00 0.00 0.00 51 1055.6
20260902144120 87 181 4.0 8.0 0.00 0.00 0.00 51 1055.5
20260902144026 87 208 4.0 14.0 0.00 0.00 0.00 51 1055.6
20260902143918 87 190 4.0 14.0 0.00 0.00 0.00 50 1055.5
20260902143818 87 181 4.0 14.0 0.00 0.00 0.00 50 1055.6
20260902143718 87 160 4.0 14.0 0.00 0.00 0.00 50 1055.6
20260902143611 87 204 4.0 14.0 0.00 0.00 0.00 50 1055.6
20260902143511 87 89 4.0 14.0 0.00 0.00 0.00 50 1055.6
20260902143411 87 150 4.0 14.0 0.00 0.00 0.00 50 1055.7
20260902143327 87 164 4.0 14.0 0.00 0.00 0.00 50 1055.7
20260902143312 87 161 4.0 14.0 0.00 0.00 0.00 49 1055.7
20260902143211 87 146 4.0 14.0 0.00 0.00 0.00 49 1055.6
20260902143157 87 102 4.0 14.0 0.00 0.00 0.00 50 1055.6
20260902143148 87 151 4.0 13.0 0.00 0.00 0.00 50 1055.6
20260902143132 88 114 5.0 12.0 0.00 0.00 0.00 50 1055.7
20260902142907 88 102 6.0 12.0 0.00 0.00 0.00 50 1055.6
20260902142855 88 102 6.0 12.0 0.00 0.00 0.00 50 1055.7
20260902142845 88 73 6.0 12.0 0.00 0.00 0.00 50 1055.7
20260902142322 88 259 6.0 12.0 0.00 0.00 0.00 50 1055.7
20260902142306 88 240 5.0 12.0 0.00 0.00 0.00 50 1055.7
20260902142204 88 207 5.0 12.0 0.00 0.00 0.00 49 1055.7
20260902142104 88 154 5.0 12.0 0.00 0.00 0.00 49 1055.7
20260902142004 88 145 5.0 11.0 0.00 0.00 0.00 49 1055.8
20260902141930 88 197 4.0 11.0 0.00 0.00 0.00 49 1055.7
20260902141919 88 171 4.0 11.0 0.00 0.00 0.00 49 1055.7
20260902141912 88 231 4.0 11.0 0.00 0.00 0.00 49 1055.7
20260902141856 88 170 4.0 11.0 0.00 0.00 0.00 49 1055.7
20260902141846 88 175 4.0 11.0 0.00 0.00 0.00 49 1055.7
20260902141340 88 120 4.0 11.0 0.00 0.00 0.00 48 1055.6
20260902141328 88 177 4.0 11.0 0.00 0.00 0.00 48 1055.7
20260902141320 88 106 4.0 11.0 0.00 0.00 0.00 48 1055.7
20260902141312 88 93 5.0 11.0 0.00 0.00 0.00 47 1055.7
20260902141302 88 77 4.0 11.0 0.00 0.00 0.00 48 1055.7
20260902140802 88 141 4.0 11.0 0.00 0.00 0.00 47 1055.7
20260902140701 88 214 5.0 11.0 0.00 0.00 0.00 47 1055.7
20260902140601 88 233 5.0 11.0 0.00 0.00 0.00 47 1055.7
20260902140501 88 222 4.0 11.0 0.00 0.00 0.00 47 1055.7
20260902140403 88 249 4.0 11.0 0.00 0.00 0.00 47 1055.7
20260902140335 88 237 4.0 11.0 0.00 0.00 0.00 47 1055.7
20260902140328 88 226 4.0 11.0 0.00 0.00 0.00 47 1055.7
20260902140320 88 249 4.0 11.0 0.00 0.00 0.00 47 1055.7
20260902135959 88 199 4.0 11.0 0.00 0.00 0.00 46 1055.7
20260902135857 88 200 5.0 11.0 0.00 0.00 0.00 47 1055.7
20260902135814 88 201 5.0 11.0 0.00 0.00 0.00 47 1055.7
20260902135757 88 210 5.0 11.0 0.00 0.00 0.00 47 1055.8
20260902135651 88 228 5.0 11.0 0.00 0.00 0.00 46 1055.8
20260902135601 88 232 4.0 11.0 0.00 0.00 0.00 46 1055.8
20260902135551 88 172 4.0 10.0 0.00 0.00 0.00 46 1056.0
20260902135537 88 222 4.0 10.0 0.00 0.00 0.00 46 1055.8
20260902135251 88 262 4.0 10.0 0.00 0.00 0.00 46 1056.0
20260902135151 88 160 4.0 10.0 0.00 0.00 0.00 46 1056.0
20260902135120 88 193 4.0 14.0 0.00 0.00 0.00 46 1056.0
20260902135110 88 153 4.0 14.0 0.00 0.00 0.00 46 1056.0
20260902134815 88 163 4.0 14.0 0.00 0.00 0.00 47 1056.0
20260902134745 88 235 4.0 14.0 0.00 0.00 0.00 47 1056.0
20260902134715 88 199 4.0 14.0 0.00 0.00 0.00 47 1056.1
20260902134706 88 343 4.0 14.0 0.00 0.00 0.00 46 1056.0
20260902134337 88 187 4.0 14.0 0.00 0.00 0.00 46 1056.0
20260902134316 88 160 4.0 14.0 0.00 0.00 0.00 46 1056.0
20260902134238 89 179 4.0 14.0 0.00 0.00 0.00 46 1056.0
20260902134137 89 173 5.0 14.0 0.00 0.00 0.00 46 1056.0
20260902134059 89 172 5.0 14.0 0.00 0.00 0.00 46 1056.0
20260902134050 89 159 5.0 14.0 0.00 0.00 0.00 46 1056.1
20260902134035 89 220 4.0 14.0 0.00 0.00 0.00 46 1056.1
20260902133736 89 210 4.0 14.0 0.00 0.00 0.00 46 1056.1
20260902133634 89 148 4.0 14.0 0.00 0.00 0.00 46 1056.1
20260902133559 89 228 4.0 14.0 0.00 0.00 0.00 46 1056.0
20260902133549 89 229 4.0 14.0 0.00 0.00 0.00 46 1056.1
20260902133533 89 229 5.0 14.0 0.00 0.00 0.00 47 1056.1
20260902133235 89 180 5.0 14.0 0.00 0.00 0.00 48 1056.2
20260902133135 89 206 6.0 13.0 0.00 0.00 0.00 48 1056.1
20260902133058 89 200 6.0 13.0 0.00 0.00 0.00 48 1056.1
20260902133049 89 197 5.0 13.0 0.00 0.00 0.00 48 1056.1
20260902133031 89 143 5.0 13.0 0.00 0.00 0.00 48 1056.1
20260902132731 89 177 5.0 13.0 0.00 0.00 0.00 49 1056.2
20260902132630 88 174 6.0 13.0 0.00 0.00 0.00 48 1056.2
20260902132606 88 238 5.0 13.0 0.00 0.00 0.00 48 1056.1
20260902132557 88 242 5.0 13.0 0.00 0.00 0.00 49 1056.1
20260902132314 88 231 5.0 13.0 0.00 0.00 0.00 49 1056.2
20260902132231 88 243 4.0 13.0 0.00 0.00 0.00 49 1056.2
20260902132131 88 187 4.0 12.0 0.00 0.00 0.00 49 1056.2
20260902132031 88 185 4.0 12.0 0.00 0.00 0.00 49 1056.2
20260902131950 88 185 4.0 12.0 0.00 0.00 0.00 49 1056.2
20260902131940 88 65 4.0 12.0 0.00 0.00 0.00 49 1056.2
20260902131934 88 167 4.0 12.0 0.00 0.00 0.00 49 1056.2
20260902131920 88 181 4.0 12.0 0.00 0.00 0.00 50 1056.3
20260902131910 88 141 4.0 11.0 0.00 0.00 0.00 50 1056.2
20260902131327 88 226 4.0 11.0 0.00 0.00 0.00 51 1056.2
20260902131314 88 235 4.0 11.0 0.00 0.00 0.00 51 1056.2
20260902131226 88 205 5.0 11.0 0.00 0.00 0.00 51 1056.2
20260902131121 87 199 5.0 11.0 0.00 0.00 0.00 51 1056.2
20260902131023 87 187 5.0 11.0 0.00 0.00 0.00 51 1056.3
20260902130921 87 163 4.0 11.0 0.00 0.00 0.00 50 1056.2
20260902130815 88 228 4.0 10.0 0.00 0.00 0.00 51 1056.2
20260902130718 88 170 4.0 10.0 0.00 0.00 0.00 51 1056.2
20260902130636 88 127 4.0 10.0 0.00 0.00 0.00 51 1056.2
20260902130628 88 122 4.0 10.0 0.00 0.00 0.00 50 1056.2
20260902130618 88 167 4.0 11.0 0.00 0.00 0.00 50 1056.3
20260902130606 88 161 5.0 11.0 0.00 0.00 0.00 50 1056.2
20260902130601 88 163 5.0 11.0 0.00 0.00 0.00 50 1056.2
20260902130548 88 150 5.0 11.0 0.00 0.00 0.00 50 1056.2
20260902130047 88 95 5.0 11.0 0.00 0.00 0.00 50 1056.2
20260902125814 88 149 5.0 11.0 0.00 0.00 0.00 50 1056.2
20260902125732 88 162 5.0 11.0 0.00 0.00 0.00 50 1056.3
20260902125724 88 191 5.0 12.0 0.00 0.00 0.00 50 1056.3
20260902125712 88 177 5.0 12.0 0.00 0.00 0.00 50 1056.3
20260902125701 88 124 5.0 12.0 0.00 0.00 0.00 50 1056.2
20260902125434 88 214 5.0 12.0 0.00 0.00 0.00 51 1056.2
20260902125109 88 233 6.0 13.0 0.00 0.00 0.00 50 1056.2
20260902125005 88 129 6.0 13.0 0.00 0.00 0.00 50 1056.2
20260902124904 89 127 7.0 13.0 0.00 0.00 0.00 49 1056.2
20260902124816 89 156 7.0 13.0 0.00 0.00 0.00 49 1056.2
20260902124806 89 154 6.0 13.0 0.00 0.00 0.00 49 1056.2
20260902124705 89 150 6.0 13.0 0.00 0.00 0.00 49 1056.2
20260902124603 89 225 6.0 13.0 0.00 0.00 0.00 49 1056.2
20260902124503 89 223 6.0 13.0 0.00 0.00 0.00 50 1056.3
20260902124402 89 170 6.0 13.0 0.00 0.00 0.00 49 1056.3
20260902124327 89 212 6.0 13.0 0.00 0.00 0.00 49 1056.3
20260902124319 89 271 5.0 13.0 0.00 0.00 0.00 49 1056.3
20260902124309 89 201 4.0 13.0 0.00 0.00 0.00 49 1056.3
20260902124257 89 214 4.0 12.0 0.00 0.00 0.00 49 1056.2
20260902124249 89 227 4.0 10.0 0.00 0.00 0.00 49 1056.3
20260902124240 89 216 4.0 10.0 0.00 0.00 0.00 50 1056.3
20260902123701 89 185 4.0 10.0 0.00 0.00 0.00 50 1056.2
20260902123601 89 194 4.0 10.0 0.00 0.00 0.00 50 1056.2
20260902123547 89 228 4.0 10.0 0.00 0.00 0.00 50 1056.2
20260902123535 89 241 4.0 10.0 0.00 0.00 0.00 50 1056.2
20260902123300 89 231 4.0 10.0 0.00 0.00 0.00 51 1056.2
20260902123201 89 205 5.0 12.0 0.00 0.00 0.00 50 1056.2
20260902123101 89 132 5.0 12.0 0.00 0.00 0.00 50 1056.3
20260902123001 89 207 5.0 12.0 0.00 0.00 0.00 50 1056.3
20260902122901 89 136 5.0 12.0 0.00 0.00 0.00 50 1056.2
20260902122815 89 185 5.0 12.0 0.00 0.00 0.00 49 1056.2
20260902122801 89 185 6.0 12.0 0.00 0.00 0.00 49 1056.2
20260902122749 89 238 6.0 17.0 0.00 0.00 0.00 49 1056.3
20260902122741 89 124 7.0 17.0 0.00 0.00 0.00 50 1056.3
20260902122727 89 228 7.0 17.0 0.00 0.00 0.00 50 1056.3
20260902122718 89 192 8.0 17.0 0.00 0.00 0.00 50 1056.3
20260902122447 89 187 8.0 17.0 0.00 0.00 0.00 51 1056.2
20260902122220 89 240 9.0 17.0 0.00 0.00 0.00 50 1056.2
20260902121856 89 206 9.0 17.0 0.00 0.00 0.00 50 1056.2
20260902121815 89 212 9.0 17.0 0.00 0.00 0.00 49 1056.2
20260902121757 89 245 8.0 17.0 0.00 0.00 0.00 49 1056.3
20260902121657 89 212 8.0 16.0 0.00 0.00 0.00 50 1056.2
20260902121557 89 218 8.0 16.0 0.00 0.00 0.00 49 1056.1
20260902121457 89 279 7.0 13.0 0.00 0.00 0.00 49 1056.2
20260902121353 89 233 7.0 13.0 0.00 0.00 0.00 49 1056.1
20260902121314 89 229 6.0 12.0 0.00 0.00 0.00 50 1056.2
20260902121252 89 225 6.0 12.0 0.00 0.00 0.00 50 1056.2
20260902121158 89 191 6.0 12.0 0.00 0.00 0.00 51 1056.2
20260902121053 89 211 5.0 12.0 0.00 0.00 0.00 51 1056.2
20260902120953 89 222 5.0 12.0 0.00 0.00 0.00 51 1056.2
20260902120851 89 105 5.0 12.0 0.00 0.00 0.00 51 1056.2
20260902120808 89 264 5.0 12.0 0.00 0.00 0.00 51 1056.1
20260902120751 89 264 5.0 12.0 0.00 0.00 0.00 51 1056.1
20260902120709 89 291 5.0 12.0 0.00 0.00 0.00 50 1056.2
20260902120657 89 78 5.0 12.0 0.00 0.00 0.00 50 1056.2
20260902120643 89 226 4.0 12.0 0.00 0.00 0.00 50 1056.2
20260902120630 89 221 4.0 10.0 0.00 0.00 0.00 48 1056.1
20260902120607 89 255 4.0 10.0 0.00 0.00 0.00 48 1056.1
20260902120600 89 111 4.0 10.0 0.00 0.00 0.00 48 1056.1
20260902120101 89 83 4.0 10.0 0.00 0.00 0.00 48 1056.2
20260902120046 89 116 4.0 10.0 0.00 0.00 0.00 48 1056.1
20260902115818 89 114 4.0 10.0 0.00 0.00 0.00 48 1056.1
20260902115809 89 131 4.0 10.0 0.00 0.00 0.00 48 1056.1
20260902115456 89 108 4.0 9.0 0.00 0.00 0.00 47 1056.1
20260902115445 89 109 4.0 9.0 0.00 0.00 0.00 46 1056.2
20260902115436 89 108 4.0 9.0 0.00 0.00 0.00 46 1056.2
20260902115425 89 108 4.0 9.0 0.00 0.00 0.00 43 1056.2
20260902115200 89 108 5.0 11.0 0.00 0.00 0.00 43 1056.2
20260902115147 89 108 5.0 11.0 0.00 0.00 0.00 43 1056.3
20260902115135 89 112 5.0 11.0 0.00 0.00 0.00 43 1056.2
20260902114906 89 129 5.0 11.0 0.00 0.00 0.00 43 1056.3
20260902114624 89 96 4.0 11.0 0.00 0.00 0.00 43 1056.2
20260902114615 89 92 4.0 11.0 0.00 0.00 0.00 43 1056.3
20260902114604 89 97 4.0 11.0 0.00 0.00 0.00 43 1056.2
20260902114557 89 210 4.0 11.0 0.00 0.00 0.00 42 1056.2
20260902114546 89 185 4.0 11.0 0.00 0.00 0.00 42 1056.2
20260902114538 89 172 4.0 10.0 0.00 0.00 0.00 43 1056.2
20260902114522 89 71 4.0 9.0 0.00 0.00 0.00 42 1056.1
20260902114513 89 114 4.0 9.0 0.00 0.00 0.00 41 1056.3
20260902114247 89 71 3.0 9.0 0.00 0.00 0.00 42 1056.2
20260902114023 89 35 3.0 9.0 0.00 0.00 0.00 42 1056.2
20260902113522 89 113 4.0 9.0 0.00 0.00 0.00 41 1056.3
20260902113238 89 139 3.0 9.0 0.00 0.00 0.00 42 1056.4
20260902113140 89 73 3.0 8.0 0.00 0.00 0.00 41 1056.3
20260902113106 89 62 3.0 8.0 0.00 0.00 0.00 42 1056.3
20260902113044 89 66 3.0 8.0 0.00 0.00 0.00 41 1056.3
20260902113025 89 66 3.0 8.0 0.00 0.00 0.00 41 1056.3
20260902112739 89 47 3.0 8.0 0.00 0.00 0.00 41 1056.3
20260902112710 89 45 3.0 8.0 0.00 0.00 0.00 41 1056.3
20260902112704 89 138 3.0 8.0 0.00 0.00 0.00 41 1056.4
20260902112339 89 88 2.0 8.0 0.00 0.00 0.00 42 1056.4
20260902112306 89 102 2.0 8.0 0.00 0.00 0.00 42 1056.4
20260902112239 88 119 2.0 7.0 0.00 0.00 0.00 42 1056.4
20260902112138 88 152 3.0 7.0 0.00 0.00 0.00 42 1056.4
20260902112039 88 152 3.0 7.0 0.00 0.00 0.00 41 1056.4
20260902111939 88 83 3.0 7.0 0.00 0.00 0.00 41 1056.4
20260902111908 88 83 3.0 7.0 0.00 0.00 0.00 41 1056.4
20260902111859 88 83 3.0 7.0 0.00 0.00 0.00 42 1056.4
20260902111546 88 83 3.0 7.0 0.00 0.00 0.00 41 1056.4
20260902111525 88 84 3.0 7.0 0.00 0.00 0.00 41 1056.4
20260902111515 88 104 3.0 7.0 0.00 0.00 0.00 42 1056.5
20260902111506 88 114 3.0 7.0 0.00 0.00 0.00 42 1056.4
20260902111138 88 154 3.0 8.0 0.00 0.00 0.00 42 1056.4
20260902111038 88 152 2.0 8.0 0.00 0.00 0.00 43 1056.4
20260902110934 87 152 3.0 8.0 0.00 0.00 0.00 42 1056.4
20260902110836 87 152 3.0 8.0 0.00 0.00 0.00 42 1056.4
20260902110806 87 154 3.0 8.0 0.00 0.00 0.00 42 1056.4
20260902110752 87 220 3.0 8.0 0.00 0.00 0.00 42 1056.4
20260902110742 87 252 4.0 12.0 0.00 0.00 0.00 42 1056.4
20260902110730 87 253 4.0 12.0 0.00 0.00 0.00 42 1056.4
20260902110502 87 247 4.0 12.0 0.00 0.00 0.00 42 1056.5
20260902110455 87 253 4.0 12.0 0.00 0.00 0.00 42 1056.4
20260902110204 87 135 4.0 12.0 0.00 0.00 0.00 41 1056.5
20260902110156 87 136 4.0 12.0 0.00 0.00 0.00 41 1056.5
20260902105835 87 108 4.0 12.0 0.00 0.00 0.00 41 1056.5
20260902105806 87 108 3.0 12.0 0.00 0.00 0.00 41 1056.5
20260902105734 87 103 3.0 12.0 0.00 0.00 0.00 41 1056.5
20260902105710 87 116 3.0 10.0 0.00 0.00 0.00 43 1056.5
20260902105702 87 127 2.0 7.0 0.00 0.00 0.00 42 1056.4
20260902105343 87 124 2.0 6.0 0.00 0.00 0.00 43 1056.5
20260902105337 87 124 2.0 6.0 0.00 0.00 0.00 43 1056.4
20260902105329 87 124 2.0 6.0 0.00 0.00 0.00 42 1056.4
20260902105321 87 124 3.0 6.0 0.00 0.00 0.00 42 1056.5
20260902105311 87 122 3.0 7.0 0.00 0.00 0.00 43 1056.5
20260902105306 87 212 3.0 7.0 0.00 0.00 0.00 43 1056.5
20260902105032 86 212 3.0 7.0 0.00 0.00 0.00 44 1056.5
20260902105025 86 179 3.0 7.0 0.00 0.00 0.00 44 1056.5
20260902105016 86 146 3.0 7.0 0.00 0.00 0.00 44 1056.5
20260902104746 86 145 3.0 10.0 0.00 0.00 0.00 43 1056.6
20260902104235 86 147 4.0 10.0 0.00 0.00 0.00 44 1056.6
20260902104134 86 139 3.0 10.0 0.00 0.00 0.00 44 1056.5
20260902104034 86 81 3.0 10.0 0.00 0.00 0.00 46 1056.5
20260902103934 86 125 3.0 10.0 0.00 0.00 0.00 44 1056.5
20260902103806 86 125 4.0 10.0 0.00 0.00 0.00 44 1056.5
20260902103735 86 125 4.0 10.0 0.00 0.00 0.00 44 1056.5
20260902103631 86 125 4.0 10.0 0.00 0.00 0.00 43 1056.6
20260902103530 86 132 4.0 9.0 0.00 0.00 0.00 44 1056.6
20260902103431 86 76 4.0 9.0 0.00 0.00 0.00 45 1056.6
20260902103306 86 172 4.0 9.0 0.00 0.00 0.00 44 1056.6
20260902103230 86 164 4.0 9.0 0.00 0.00 0.00 44 1056.6
20260902103131 86 166 4.0 9.0 0.00 0.00 0.00 45 1056.6
20260902103031 86 166 4.0 11.0 0.00 0.00 0.00 46 1056.6
20260902102930 86 102 5.0 11.0 0.00 0.00 0.00 45 1056.6
20260902102831 85 86 5.0 11.0 0.00 0.00 0.00 46 1056.6
20260902102807 85 95 5.0 11.0 0.00 0.00 0.00 47 1056.7
20260902102731 85 79 5.0 11.0 0.00 0.00 0.00 47 1056.7
20260902102631 85 146 5.0 11.0 0.00 0.00 0.00 47 1056.6
20260902102532 85 174 6.0 11.0 0.00 0.00 0.00 47 1056.6
20260902102430 85 174 6.0 11.0 0.00 0.00 0.00 47 1056.7
20260902102330 85 105 6.0 11.0 0.00 0.00 0.00 47 1056.7
20260902102310 85 122 6.0 11.0 0.00 0.00 0.00 47 1056.6
20260902102256 85 130 6.0 11.0 0.00 0.00 0.00 47 1056.6
20260902102248 85 105 6.0 11.0 0.00 0.00 0.00 46 1056.6
20260902102240 85 118 6.0 11.0 0.00 0.00 0.00 45 1056.7
20260902102228 85 117 5.0 10.0 0.00 0.00 0.00 45 1056.6
20260902102217 85 131 5.0 10.0 0.00 0.00 0.00 46 1056.6
20260902102210 85 108 5.0 10.0 0.00 0.00 0.00 46 1056.6
20260902101937 85 122 4.0 9.0 0.00 0.00 0.00 47 1056.6
20260902101433 85 216 4.0 8.0 0.00 0.00 0.00 46 1056.6
20260902101419 85 137 4.0 9.0 0.00 0.00 0.00 46 1056.6
20260902101151 85 126 4.0 9.0 0.00 0.00 0.00 49 1056.6
20260902100823 85 130 4.0 9.0 0.00 0.00 0.00 50 1056.6
20260902100805 85 178 4.0 9.0 0.00 0.00 0.00 50 1056.6
20260902100723 85 179 4.0 10.0 0.00 0.00 0.00 51 1056.6
20260902100620 85 180 4.0 10.0 0.00 0.00 0.00 51 1056.6
20260902100520 85 181 4.0 10.0 0.00 0.00 0.00 50 1056.6
20260902100418 85 121 4.0 10.0 0.00 0.00 0.00 50 1056.6
20260902100317 85 120 4.0 10.0 0.00 0.00 0.00 50 1056.6
20260902100304 85 121 4.0 10.0 0.00 0.00 0.00 50 1056.6
20260902100215 85 137 4.0 10.0 0.00 0.00 0.00 50 1056.6
20260902100113 85 155 3.0 10.0 0.00 0.00 0.00 50 1056.7
20260902100011 85 154 3.0 10.0 0.00 0.00 0.00 51 1056.7
20260902095912 85 156 3.0 10.0 0.00 0.00 0.00 51 1056.7
20260902095812 85 164 3.0 10.0 0.00 0.00 0.00 51 1056.7
20260902095806 85 164 3.0 10.0 0.00 0.00 0.00 51 1056.6
20260902095756 85 93 3.0 7.0 0.00 0.00 0.00 52 1056.6
20260902095748 84 91 3.0 7.0 0.00 0.00 0.00 51 1056.6
20260902095734 84 83 3.0 7.0 0.00 0.00 0.00 51 1056.6
20260902095725 84 82 4.0 7.0 0.00 0.00 0.00 51 1056.6
20260902095457 84 81 4.0 7.0 0.00 0.00 0.00 52 1056.6
20260902095445 84 81 4.0 8.0 0.00 0.00 0.00 51 1056.6
20260902094933 84 131 5.0 10.0 0.00 0.00 0.00 52 1056.7
20260902094912 84 110 5.0 10.0 0.00 0.00 0.00 51 1056.6
20260902094900 84 73 5.0 10.0 0.00 0.00 0.00 51 1056.6
20260902094850 84 108 5.0 10.0 0.00 0.00 0.00 50 1056.6
20260902094836 84 108 5.0 10.0 0.00 0.00 0.00 51 1056.6
20260902094827 84 108 4.0 10.0 0.00 0.00 0.00 51 1056.6
20260902094813 85 105 4.0 10.0 0.00 0.00 0.00 51 1056.7
20260902094058 85 120 3.0 9.0 0.00 0.00 0.00 52 1056.6
20260902094046 84 127 3.0 8.0 0.00 0.00 0.00 52 1056.6
20260902093821 84 127 3.0 8.0 0.00 0.00 0.00 51 1056.6
20260902093809 84 127 3.0 9.0 0.00 0.00 0.00 52 1056.6
20260902093759 84 128 4.0 9.0 0.00 0.00 0.00 52 1056.6
20260902093521 84 129 3.0 9.0 0.00 0.00 0.00 51 1056.6
20260902093201 84 160 4.0 9.0 0.00 0.00 0.00 52 1056.5
20260902093102 84 156 4.0 9.0 0.00 0.00 0.00 51 1056.5
20260902093000 84 156 4.0 9.0 0.00 0.00 0.00 52 1056.5
20260902092857 84 156 4.0 9.0 0.00 0.00 0.00 51 1056.6
20260902092809 84 134 4.0 9.0 0.00 0.00 0.00 50 1056.6
20260902092752 84 133 4.0 9.0 0.00 0.00 0.00 50 1056.6
20260902092704 84 131 4.0 9.0 0.00 0.00 0.00 52 1056.6
20260902092655 84 137 4.0 8.0 0.00 0.00 0.00 50 1056.5
20260902092637 84 81 4.0 8.0 0.00 0.00 0.00 51 1056.5
20260902092409 85 77 4.0 8.0 0.00 0.00 0.00 52 1056.5
20260902092403 85 63 4.0 8.0 0.00 0.00 0.00 52 1056.5
20260902092041 84 88 3.0 8.0 0.00 0.00 0.00 53 1056.6
20260902091942 84 136 3.0 8.0 0.00 0.00 0.00 52 1056.5
20260902091841 84 116 3.0 8.0 0.00 0.00 0.00 53 1056.6
20260902091804 84 116 3.0 8.0 0.00 0.00 0.00 54 1056.5
20260902091736 84 114 3.0 8.0 0.00 0.00 0.00 54 1056.5
20260902091635 85 101 3.0 8.0 0.00 0.00 0.00 53 1056.5
20260902091605 85 101 3.0 8.0 0.00 0.00 0.00 52 1056.5
20260902091543 85 110 3.0 9.0 0.00 0.00 0.00 52 1056.5
20260902091529 85 75 3.0 9.0 0.00 0.00 0.00 53 1056.5
20260902091520 85 36 3.0 9.0 0.00 0.00 0.00 53 1056.4
20260902091256 85 100 3.0 9.0 0.00 0.00 0.00 52 1056.4
20260902090927 85 85 4.0 9.0 0.00 0.00 0.00 51 1056.5
20260902090825 85 70 4.0 9.0 0.00 0.00 0.00 51 1056.4
20260902090803 85 70 4.0 9.0 0.00 0.00 0.00 51 1056.5
20260902090747 85 70 4.0 9.0 0.00 0.00 0.00 52 1056.5
20260902090739 85 70 4.0 9.0 0.00 0.00 0.00 51 1056.4
20260902090420 85 82 3.0 8.0 0.00 0.00 0.00 56 1056.4
20260902090319 85 86 3.0 8.0 0.00 0.00 0.00 58 1056.5
20260902090304 85 86 3.0 8.0 0.00 0.00 0.00 58 1056.4
20260902090216 85 43 3.0 8.0 0.00 0.00 0.00 57 1056.4
20260902090115 85 311 3.0 8.0 0.00 0.00 0.00 57 1056.4
20260902090016 85 312 3.0 8.0 0.00 0.00 0.00 58 1056.4
20260902085950 85 311 3.0 8.0 0.00 0.00 0.00 57 1056.4
20260902085940 84 338 3.0 8.0 0.00 0.00 0.00 58 1056.4
20260902085933 84 337 3.0 8.0 0.00 0.00 0.00 58 1056.4
20260902085607 84 4 3.0 7.0 0.00 0.00 0.00 58 1056.4
20260902085506 84 354 3.0 7.0 0.00 0.00 0.00 59 1056.4
20260902085404 84 359 3.0 7.0 0.00 0.00 0.00 60 1056.4
20260902085306 84 335 3.0 7.0 0.00 0.00 0.00 60 1056.3
20260902085236 84 335 3.0 7.0 0.00 0.00 0.00 59 1056.3
20260902085228 84 359 3.0 7.0 0.00 0.00 0.00 60 1056.3
20260902084944 84 339 2.0 8.0 0.00 0.00 0.00 60 1056.3
20260902084930 83 328 2.0 8.0 0.00 0.00 0.00 60 1056.3
20260902084604 83 4 2.0 8.0 0.00 0.00 0.00 61 1056.3
20260902084553 83 48 3.0 8.0 0.00 0.00 0.00 61 1056.3
20260902084544 83 46 3.0 8.0 0.00 0.00 0.00 61 1056.2
20260902084529 83 291 3.0 8.0 0.00 0.00 0.00 61 1056.3